Wetterdaten: Dienstag, 24.12.2019
Datum Zeit Temp. Aussen Temp. o. S. Temp +5cm Feuchte Auss Luftdruck Regen Sonnenschein Regendauer Solar Windben Empfang
24.12.2019 00:00 6,9 C 6,1 C 5,6 C 92 % 1015,0 hPa 0,0 l/m 0 min 0 min 0 W/m 16,1 km/h (3 Bft) 100,00 %
24.12.2019 00:02 6,9 C 6,1 C 5,6 C 92 % 1015,0 hPa 0,0 l/m 0 min 0 min 0 W/m 16,1 km/h (3 Bft) 97,73 %
24.12.2019 00:04 6,9 C 6,1 C 5,6 C 92 % 1015,0 hPa 0,0 l/m 0 min 0 min 0 W/m 12,9 km/h (3 Bft) 97,87 %
24.12.2019 00:08 6,9 C 6,1 C 5,6 C 92 % 1015,0 hPa 0,0 l/m 0 min 0 min 0 W/m 16,1 km/h (3 Bft) 97,87 %
24.12.2019 00:10 6,8 C 6,1 C 5,6 C 92 % 1015,1 hPa 0,0 l/m 0 min 0 min 0 W/m 19,3 km/h (3 Bft) 97,87 %
24.12.2019 00:12 6,8 C 6,1 C 5,6 C 92 % 1015,1 hPa 0,0 l/m 0 min 0 min 0 W/m 12,9 km/h (3 Bft) 97,83 %
24.12.2019 00:14 6,8 C 6,1 C 5,6 C 92 % 1015,1 hPa 0,0 l/m 0 min 0 min 0 W/m 9,7 km/h (2 Bft) 97,87 %
24.12.2019 00:16 6,8 C 6,1 C 5,6 C 92 % 1015,0 hPa 0,0 l/m 0 min 0 min 0 W/m 12,9 km/h (3 Bft) 97,87 %
24.12.2019 00:18 6,8 C 6,1 C 5,6 C 92 % 1015,0 hPa 0,0 l/m 0 min 0 min 0 W/m 12,9 km/h (3 Bft) 97,87 %
24.12.2019 00:20 6,8 C 6,1 C 5,6 C 92 % 1015,1 hPa 0,0 l/m 0 min 0 min 0 W/m 6,4 km/h (2 Bft) 97,87 %
24.12.2019 00:22 6,8 C 6,1 C 5,6 C 92 % 1015,0 hPa 0,0 l/m 0 min 0 min 0 W/m 29,0 km/h (5 Bft) 95,74 %
24.12.2019 00:24 6,8 C 6,1 C 5,6 C 92 % 1015,1 hPa 0,0 l/m 0 min 0 min 0 W/m 12,9 km/h (3 Bft) 97,83 %
24.12.2019 00:26 6,8 C 6,1 C 5,6 C 92 % 1015,0 hPa 0,0 l/m 0 min 0 min 0 W/m 6,4 km/h (2 Bft) 97,87 %
24.12.2019 00:28 6,8 C 6,1 C 5,6 C 92 % 1015,0 hPa 0,0 l/m 0 min 0 min 0 W/m 16,1 km/h (3 Bft) 93,62 %
24.12.2019 00:30 6,8 C 6,1 C 5,6 C 92 % 1015,0 hPa 0,0 l/m 0 min 0 min 0 W/m 19,3 km/h (3 Bft) 95,74 %
24.12.2019 00:32 6,8 C 6,1 C 5,6 C 93 % 1015,0 hPa 0,0 l/m 0 min 0 min 0 W/m 19,3 km/h (3 Bft) 95,74 %
24.12.2019 00:34 6,8 C 6,1 C 5,6 C 92 % 1015,0 hPa 0,0 l/m 0 min 0 min 0 W/m 3,2 km/h (1 Bft) 95,74 %
24.12.2019 00:36 6,8 C 5,6 C 5,0 C 92 % 1015,0 hPa 0,0 l/m 0 min 0 min 0 W/m 6,4 km/h (2 Bft) 95,65 %
24.12.2019 00:38 6,7 C 5,6 C 5,0 C 92 % 1015,0 hPa 0,0 l/m 0 min 0 min 0 W/m 12,9 km/h (3 Bft) 91,49 %
24.12.2019 00:40 6,7 C 5,6 C 5,0 C 93 % 1015,0 hPa 0,0 l/m 0 min 0 min 0 W/m 16,1 km/h (3 Bft) 95,74 %
24.12.2019 00:42 6,7 C 5,6 C 5,0 C 93 % 1015,0 hPa 0,0 l/m 0 min 0 min 0 W/m 12,9 km/h (3 Bft) 95,74 %
24.12.2019 00:44 6,7 C 5,6 C 5,0 C 93 % 1015,0 hPa 0,0 l/m 0 min 0 min 0 W/m 16,1 km/h (3 Bft) 93,62 %
24.12.2019 00:46 6,7 C 5,6 C 5,0 C 93 % 1015,0 hPa 0,0 l/m 0 min 0 min 0 W/m 16,1 km/h (3 Bft) 95,65 %
24.12.2019 00:48 6,7 C 5,6 C 5,0 C 93 % 1014,9 hPa 0,0 l/m 0 min 0 min 0 W/m 12,9 km/h (3 Bft) 95,74 %
24.12.2019 00:50 6,7 C 5,6 C 5,0 C 93 % 1014,9 hPa 0,0 l/m 0 min 0 min 0 W/m 19,3 km/h (3 Bft) 95,74 %
24.12.2019 00:52 6,7 C 5,6 C 5,0 C 93 % 1014,9 hPa 0,0 l/m 0 min 0 min 0 W/m 6,4 km/h (2 Bft) 95,74 %
24.12.2019 00:54 6,6 C 5,6 C 5,0 C 93 % 1015,0 hPa 0,0 l/m 0 min 0 min 0 W/m 3,2 km/h (1 Bft) 95,74 %
24.12.2019 00:56 6,6 C 5,6 C 5,0 C 93 % 1015,0 hPa 0,0 l/m 0 min 0 min 0 W/m 12,9 km/h (3 Bft) 97,87 %
24.12.2019 00:58 6,6 C 5,6 C 5,0 C 93 % 1014,9 hPa 0,0 l/m 0 min 0 min 0 W/m 6,4 km/h (2 Bft) 97,83 %
24.12.2019 01:00 6,6 C 5,6 C 5,0 C 93 % 1015,0 hPa 0,0 l/m 0 min 0 min 0 W/m 12,9 km/h (3 Bft) 97,87 %
24.12.2019 01:02 6,6 C 5,6 C 5,0 C 93 % 1015,0 hPa 0,0 l/m 0 min 0 min 0 W/m 6,4 km/h (2 Bft) 97,87 %
24.12.2019 01:04 6,6 C 5,6 C 5,0 C 93 % 1015,0 hPa 0,0 l/m 0 min 0 min 0 W/m 6,4 km/h (2 Bft) 97,87 %
24.12.2019 01:06 6,5 C 5,6 C 5,0 C 93 % 1015,0 hPa 0,0 l/m 0 min 0 min 0 W/m 6,4 km/h (2 Bft) 95,74 %
24.12.2019 01:08 6,5 C 5,6 C 5,0 C 93 % 1015,0 hPa 0,0 l/m 0 min 0 min 0 W/m 3,2 km/h (1 Bft) 97,87 %
24.12.2019 01:10 6,5 C 5,6 C 5,0 C 93 % 1015,0 hPa 0,0 l/m 0 min 0 min 0 W/m 16,1 km/h (3 Bft) 97,83 %
24.12.2019 01:12 6,5 C 5,6 C 5,0 C 93 % 1015,0 hPa 0,0 l/m 0 min 0 min 0 W/m 6,4 km/h (2 Bft) 95,74 %
24.12.2019 01:14 6,5 C 5,6 C 5,0 C 93 % 1015,1 hPa 0,0 l/m 0 min 0 min 0 W/m 6,4 km/h (2 Bft) 100,00 %
24.12.2019 01:16 6,5 C 5,6 C 5,0 C 94 % 1015,1 hPa 0,0 l/m 0 min 0 min 0 W/m 12,9 km/h (3 Bft) 95,74 %
24.12.2019 01:18 6,5 C 5,6 C 5,0 C 94 % 1015,1 hPa 0,0 l/m 0 min 0 min 0 W/m 12,9 km/h (3 Bft) 95,74 %
24.12.2019 01:20 6,5 C 5,6 C 5,0 C 94 % 1015,1 hPa 0,0 l/m 0 min 0 min 0 W/m 12,9 km/h (3 Bft) 95,65 %
24.12.2019 01:22 6,5 C 5,6 C 5,0 C 94 % 1015,1 hPa 0,0 l/m 0 min 0 min 0 W/m 12,9 km/h (3 Bft) 97,87 %
24.12.2019 01:24 6,4 C 5,6 C 5,0 C 94 % 1015,1 hPa 0,0 l/m 0 min 0 min 0 W/m 3,2 km/h (1 Bft) 95,74 %
24.12.2019 01:26 6,5 C 5,6 C 5,0 C 94 % 1015,2 hPa 0,0 l/m 0 min 0 min 0 W/m 12,9 km/h (3 Bft) 93,62 %
24.12.2019 01:28 6,5 C 5,6 C 5,0 C 94 % 1015,2 hPa 0,0 l/m 0 min 0 min 0 W/m 12,9 km/h (3 Bft) 97,87 %
24.12.2019 01:30 6,5 C 5,6 C 5,0 C 94 % 1015,1 hPa 0,0 l/m 0 min 0 min 0 W/m 16,1 km/h (3 Bft) 97,87 %
24.12.2019 01:32 6,4 C 5,6 C 5,0 C 94 % 1015,2 hPa 0,0 l/m 0 min 0 min 0 W/m 12,9 km/h (3 Bft) 95,65 %
24.12.2019 01:34 6,5 C 5,6 C 5,0 C 94 % 1015,2 hPa 0,0 l/m 0 min 0 min 0 W/m 6,4 km/h (2 Bft) 95,74 %
24.12.2019 01:36 6,4 C 5,6 C 5,0 C 94 % 1015,2 hPa 0,0 l/m 0 min 0 min 0 W/m 6,4 km/h (2 Bft) 97,87 %
24.12.2019 01:38 6,4 C 5,6 C 5,0 C 94 % 1015,1 hPa 0,0 l/m 0 min 0 min 0 W/m 16,1 km/h (3 Bft) 97,87 %
24.12.2019 01:40 6,4 C 5,6 C 5,0 C 94 % 1015,1 hPa 0,0 l/m 0 min 0 min 0 W/m 12,9 km/h (3 Bft) 97,87 %
24.12.2019 01:42 6,4 C 5,6 C 5,0 C 94 % 1015,1 hPa 0,0 l/m 0 min 0 min 0 W/m 3,2 km/h (1 Bft) 93,62 %
24.12.2019 01:44 6,4 C 5,6 C 5,0 C 94 % 1015,1 hPa 0,0 l/m 0 min 0 min 0 W/m 6,4 km/h (2 Bft) 97,83 %
24.12.2019 01:46 6,4 C 5,6 C 5,0 C 94 % 1015,1 hPa 0,0 l/m 0 min 0 min 0 W/m 16,1 km/h (3 Bft) 95,74 %
24.12.2019 01:48 6,4 C 5,6 C 5,0 C 94 % 1015,1 hPa 0,0 l/m 0 min 0 min 0 W/m 3,2 km/h (1 Bft) 97,87 %
24.12.2019 01:50 6,4 C 5,6 C 5,0 C 94 % 1015,1 hPa 0,0 l/m 0 min 0 min 0 W/m 19,3 km/h (3 Bft) 97,87 %
24.12.2019 01:52 6,4 C 5,6 C 5,0 C 94 % 1015,1 hPa 0,0 l/m 0 min 0 min 0 W/m 12,9 km/h (3 Bft) 97,87 %
24.12.2019 01:54 6,4 C 5,6 C 5,0 C 94 % 1015,1 hPa 0,0 l/m 0 min 0 min 0 W/m 3,2 km/h (1 Bft) 97,87 %
24.12.2019 01:56 6,4 C 5,6 C 5,0 C 95 % 1015,1 hPa 0,0 l/m 0 min 0 min 0 W/m 12,9 km/h (3 Bft) 97,83 %
24.12.2019 01:58 6,4 C 5,6 C 5,0 C 95 % 1015,1 hPa 0,0 l/m 0 min 0 min 0 W/m 12,9 km/h (3 Bft) 97,87 %
24.12.2019 02:00 6,4 C 5,6 C 5,0 C 95 % 1015,1 hPa 0,0 l/m 0 min 0 min 0 W/m 6,4 km/h (2 Bft) 95,74 %
24.12.2019 02:02 6,4 C 5,6 C 5,0 C 95 % 1015,1 hPa 0,0 l/m 0 min 0 min 0 W/m 12,9 km/h (3 Bft) 97,87 %
24.12.2019 02:04 6,3 C 5,6 C 5,0 C 95 % 1015,0 hPa 0,0 l/m 0 min 0 min 0 W/m 6,4 km/h (2 Bft) 97,87 %
24.12.2019 02:06 6,4 C 5,6 C 5,0 C 95 % 1015,0 hPa 0,0 l/m 0 min 0 min 0 W/m 12,9 km/h (3 Bft) 97,87 %
24.12.2019 02:08 6,3 C 5,6 C 5,0 C 95 % 1015,0 hPa 0,0 l/m 0 min 0 min 0 W/m 3,2 km/h (1 Bft) 97,83 %
24.12.2019 02:10 6,3 C 5,6 C 5,0 C 95 % 1015,0 hPa 0,0 l/m 0 min 0 min 0 W/m 6,4 km/h (2 Bft) 100,00 %
24.12.2019 02:12 6,3 C 5,6 C 5,0 C 95 % 1015,0 hPa 0,0 l/m 0 min 0 min 0 W/m 6,4 km/h (2 Bft) 97,87 %
24.12.2019 02:14 6,3 C 5,6 C 5,0 C 95 % 1015,0 hPa 0,0 l/m 0 min 0 min 0 W/m 6,4 km/h (2 Bft) 97,87 %
24.12.2019 02:16 6,3 C 5,6 C 4,4 C 95 % 1014,9 hPa 0,0 l/m 0 min 0 min 0 W/m 6,4 km/h (2 Bft) 100,00 %
24.12.2019 02:18 6,3 C 5,6 C 5,0 C 95 % 1014,9 hPa 0,0 l/m 0 min 0 min 0 W/m 16,1 km/h (3 Bft) 100,00 %
24.12.2019 02:20 6,3 C 5,6 C 5,0 C 95 % 1015,0 hPa 0,0 l/m 0 min 0 min 0 W/m 16,1 km/h (3 Bft) 100,00 %
24.12.2019 02:22 6,3 C 5,6 C 5,0 C 95 % 1014,9 hPa 0,0 l/m 0 min 0 min 0 W/m 19,3 km/h (3 Bft) 97,87 %
24.12.2019 02:24 6,3 C 5,6 C 5,0 C 95 % 1014,9 hPa 0,0 l/m 0 min 0 min 0 W/m 6,4 km/h (2 Bft) 100,00 %
24.12.2019 02:26 6,3 C 5,6 C 5,0 C 95 % 1014,9 hPa 0,0 l/m 0 min 0 min 0 W/m 16,1 km/h (3 Bft) 100,00 %
24.12.2019 02:28 6,3 C 5,6 C 5,0 C 95 % 1015,0 hPa 0,0 l/m 0 min 0 min 0 W/m 19,3 km/h (3 Bft) 100,00 %
24.12.2019 02:30 6,3 C 5,6 C 5,0 C 95 % 1015,0 hPa 0,0 l/m 0 min 0 min 0 W/m 12,9 km/h (3 Bft) 100,00 %
24.12.2019 02:32 6,3 C 5,6 C 5,0 C 95 % 1015,0 hPa 0,0 l/m 0 min 0 min 0 W/m 6,4 km/h (2 Bft) 97,87 %
24.12.2019 02:34 6,3 C 5,6 C 5,0 C 95 % 1015,0 hPa 0,0 l/m 0 min 0 min 0 W/m 16,1 km/h (3 Bft) 93,62 %
24.12.2019 02:36 6,3 C 5,6 C 5,0 C 95 % 1015,0 hPa 0,0 l/m 0 min 0 min 0 W/m 19,3 km/h (3 Bft) 100,00 %
24.12.2019 02:38 6,3 C 5,6 C 5,0 C 95 % 1015,0 hPa 0,0 l/m 0 min 0 min 0 W/m 12,9 km/h (3 Bft) 100,00 %
24.12.2019 02:40 6,3 C 5,6 C 5,0 C 95 % 1014,9 hPa 0,0 l/m 0 min 0 min 0 W/m 12,9 km/h (3 Bft) 97,87 %
24.12.2019 02:42 6,3 C 5,6 C 5,0 C 95 % 1015,0 hPa 0,0 l/m 0 min 0 min 0 W/m 12,9 km/h (3 Bft) 97,83 %
24.12.2019 02:44 6,3 C 5,6 C 5,0 C 95 % 1014,9 hPa 0,0 l/m 0 min 0 min 0 W/m 12,9 km/h (3 Bft) 95,74 %
24.12.2019 02:46 6,3 C 5,6 C 5,0 C 95 % 1014,9 hPa 0,0 l/m 0 min 0 min 0 W/m 16,1 km/h (3 Bft) 97,87 %
24.12.2019 02:48 6,3 C 5,6 C 5,0 C 95 % 1014,9 hPa 0,0 l/m 0 min 0 min 0 W/m 12,9 km/h (3 Bft) 97,87 %
24.12.2019 02:50 6,3 C 5,6 C 5,0 C 95 % 1014,9 hPa 0,0 l/m 0 min 0 min 0 W/m 12,9 km/h (3 Bft) 97,87 %
24.12.2019 02:52 6,3 C 5,6 C 5,0 C 95 % 1014,9 hPa 0,0 l/m 0 min 0 min 0 W/m 16,1 km/h (3 Bft) 97,87 %
24.12.2019 02:54 6,3 C 5,6 C 5,0 C 95 % 1014,8 hPa 0,0 l/m 0 min 0 min 0 W/m 22,5 km/h (4 Bft) 97,83 %
24.12.2019 02:56 6,3 C 5,6 C 5,0 C 95 % 1014,8 hPa 0,0 l/m 0 min 0 min 0 W/m 16,1 km/h (3 Bft) 97,87 %
24.12.2019 02:58 6,3 C 5,6 C 5,0 C 95 % 1014,8 hPa 0,0 l/m 0 min 0 min 0 W/m 6,4 km/h (2 Bft) 97,87 %
24.12.2019 03:00 6,3 C 6,1 C 5,0 C 95 % 1014,8 hPa 0,0 l/m 0 min 0 min 0 W/m 12,9 km/h (3 Bft) 97,87 %
24.12.2019 03:02 6,4 C 6,1 C 5,0 C 95 % 1014,9 hPa 0,0 l/m 0 min 0 min 0 W/m 12,9 km/h (3 Bft) 95,74 %
24.12.2019 03:04 6,4 C 6,1 C 5,6 C 95 % 1014,9 hPa 0,0 l/m 0 min 0 min 0 W/m 19,3 km/h (3 Bft) 97,87 %
24.12.2019 03:06 6,4 C 6,1 C 5,6 C 96 % 1014,9 hPa 0,0 l/m 0 min 0 min 0 W/m 16,1 km/h (3 Bft) 95,65 %
24.12.2019 03:08 6,4 C 6,1 C 5,6 C 96 % 1014,9 hPa 0,0 l/m 0 min 0 min 0 W/m 16,1 km/h (3 Bft) 97,87 %
24.12.2019 03:10 6,5 C 6,1 C 5,6 C 96 % 1014,9 hPa 0,0 l/m 0 min 0 min 0 W/m 12,9 km/h (3 Bft) 97,87 %
24.12.2019 03:12 6,5 C 6,1 C 5,6 C 96 % 1014,8 hPa 0,0 l/m 0 min 0 min 0 W/m 6,4 km/h (2 Bft) 97,87 %
24.12.2019 03:14 6,5 C 6,1 C 5,6 C 96 % 1014,9 hPa 0,0 l/m 0 min 0 min 0 W/m 16,1 km/h (3 Bft) 95,74 %
24.12.2019 03:16 6,5 C 6,1 C 5,6 C 96 % 1014,9 hPa 0,0 l/m 0 min 0 min 0 W/m 25,7 km/h (4 Bft) 95,74 %
24.12.2019 03:18 6,6 C 6,1 C 5,6 C 96 % 1014,9 hPa 0,0 l/m 0 min 0 min 0 W/m 19,3 km/h (3 Bft) 97,83 %
24.12.2019 03:20 6,6 C 6,1 C 5,6 C 96 % 1014,9 hPa 0,0 l/m 0 min 0 min 0 W/m 29,0 km/h (5 Bft) 97,87 %
24.12.2019 03:22 6,6 C 6,1 C 5,6 C 96 % 1014,9 hPa 0,0 l/m 0 min 0 min 0 W/m 16,1 km/h (3 Bft) 97,87 %
24.12.2019 03:24 6,6 C 6,1 C 5,6 C 96 % 1014,8 hPa 0,0 l/m 0 min 0 min 0 W/m 16,1 km/h (3 Bft) 97,87 %
24.12.2019 03:26 6,7 C 6,1 C 5,6 C 96 % 1014,8 hPa 0,0 l/m 0 min 0 min 0 W/m 22,5 km/h (4 Bft) 97,87 %
24.12.2019 03:28 6,7 C 6,7 C 5,6 C 96 % 1014,8 hPa 0,0 l/m 0 min 0 min 0 W/m 16,1 km/h (3 Bft) 97,87 %
24.12.2019 03:30 6,7 C 6,7 C 5,6 C 96 % 1014,7 hPa 0,0 l/m 0 min 0 min 0 W/m 12,9 km/h (3 Bft) 97,83 %
24.12.2019 03:32 6,7 C 6,7 C 5,6 C 96 % 1014,8 hPa 0,0 l/m 0 min 0 min 0 W/m 22,5 km/h (4 Bft) 100,00 %
24.12.2019 03:34 6,8 C 6,7 C 5,6 C 96 % 1014,7 hPa 0,0 l/m 0 min 0 min 0 W/m 22,5 km/h (4 Bft) 100,00 %
24.12.2019 03:36 6,8 C 6,7 C 6,1 C 96 % 1014,7 hPa 0,0 l/m 0 min 0 min 0 W/m 19,3 km/h (3 Bft) 100,00 %
24.12.2019 03:38 6,8 C 6,7 C 5,6 C 96 % 1014,7 hPa 0,0 l/m 0 min 0 min 0 W/m 16,1 km/h (3 Bft) 100,00 %
24.12.2019 03:40 6,8 C 6,7 C 6,1 C 96 % 1014,7 hPa 0,0 l/m 0 min 0 min 0 W/m 16,1 km/h (3 Bft) 100,00 %
24.12.2019 03:42 6,8 C 6,7 C 5,6 C 96 % 1014,7 hPa 0,0 l/m 0 min 0 min 0 W/m 25,7 km/h (4 Bft) 97,87 %
24.12.2019 03:44 6,9 C 6,1 C 5,6 C 96 % 1014,6 hPa 0,0 l/m 0 min 0 min 0 W/m 16,1 km/h (3 Bft) 100,00 %
24.12.2019 03:46 6,9 C 6,1 C 5,6 C 96 % 1014,6 hPa 0,0 l/m 0 min 0 min 0 W/m 19,3 km/h (3 Bft) 100,00 %
24.12.2019 03:48 6,9 C 6,7 C 5,6 C 96 % 1014,6 hPa 0,0 l/m 0 min 0 min 0 W/m 16,1 km/h (3 Bft) 100,00 %
24.12.2019 03:50 6,9 C 6,7 C 5,6 C 96 % 1014,6 hPa 0,0 l/m 0 min 0 min 0 W/m 29,0 km/h (5 Bft) 100,00 %
24.12.2019 03:52 6,9 C 6,7 C 5,6 C 96 % 1014,6 hPa 0,0 l/m 0 min 0 min 0 W/m 19,3 km/h (3 Bft) 100,00 %
24.12.2019 03:54 6,9 C 6,7 C 5,6 C 96 % 1014,6 hPa 0,0 l/m 0 min 0 min 0 W/m 16,1 km/h (3 Bft) 97,87 %
24.12.2019 03:56 6,9 C 6,7 C 6,1 C 96 % 1014,6 hPa 0,0 l/m 0 min 0 min 0 W/m 25,7 km/h (4 Bft) 97,87 %
24.12.2019 03:58 6,9 C 6,7 C 6,1 C 96 % 1014,5 hPa 0,0 l/m 0 min 0 min 0 W/m 19,3 km/h (3 Bft) 97,87 %
24.12.2019 04:00 7,0 C 6,7 C 6,1 C 95 % 1014,5 hPa 0,0 l/m 0 min 0 min 0 W/m 16,1 km/h (3 Bft) 97,87 %
24.12.2019 04:02 7,0 C 6,7 C 6,1 C 95 % 1014,5 hPa 0,0 l/m 0 min 0 min 0 W/m 19,3 km/h (3 Bft) 100,00 %
24.12.2019 04:04 7,0 C 6,7 C 6,1 C 95 % 1014,4 hPa 0,0 l/m 0 min 0 min 0 W/m 16,1 km/h (3 Bft) 97,83 %
24.12.2019 04:06 7,0 C 6,7 C 6,1 C 95 % 1014,3 hPa 0,0 l/m 0 min 0 min 0 W/m 25,7 km/h (4 Bft) 93,62 %
24.12.2019 04:08 7,0 C 6,7 C 6,1 C 95 % 1014,3 hPa 0,0 l/m 0 min 0 min 0 W/m 16,1 km/h (3 Bft) 95,74 %
24.12.2019 04:10 7,1 C 6,7 C 6,1 C 95 % 1014,3 hPa 0,0 l/m 0 min 0 min 0 W/m 19,3 km/h (3 Bft) 95,74 %
24.12.2019 04:12 7,1 C 6,7 C 6,1 C 95 % 1014,3 hPa 0,0 l/m 0 min 0 min 0 W/m 16,1 km/h (3 Bft) 95,74 %
24.12.2019 04:14 7,1 C 6,7 C 6,1 C 95 % 1014,2 hPa 0,0 l/m 0 min 0 min 0 W/m 12,9 km/h (3 Bft) 95,74 %
24.12.2019 04:16 7,1 C 6,7 C 6,1 C 95 % 1014,2 hPa 0,0 l/m 0 min 0 min 0 W/m 19,3 km/h (3 Bft) 93,48 %
24.12.2019 04:18 7,1 C 6,7 C 6,1 C 95 % 1014,1 hPa 0,0 l/m 0 min 0 min 0 W/m 25,7 km/h (4 Bft) 95,74 %
24.12.2019 04:20 7,1 C 6,7 C 6,1 C 95 % 1014,1 hPa 0,0 l/m 0 min 0 min 0 W/m 22,5 km/h (4 Bft) 93,62 %
24.12.2019 04:22 7,1 C 6,7 C 6,1 C 95 % 1014,0 hPa 0,0 l/m 0 min 0 min 0 W/m 16,1 km/h (3 Bft) 95,74 %
24.12.2019 04:24 7,1 C 6,7 C 6,1 C 95 % 1014,0 hPa 0,0 l/m 0 min 0 min 0 W/m 22,5 km/h (4 Bft) 95,74 %
24.12.2019 04:26 7,1 C 6,7 C 6,1 C 95 % 1014,0 hPa 0,0 l/m 0 min 0 min 0 W/m 22,5 km/h (4 Bft) 97,87 %
24.12.2019 04:28 7,1 C 6,7 C 6,1 C 95 % 1013,9 hPa 0,0 l/m 0 min 0 min 0 W/m 19,3 km/h (3 Bft) 91,30 %
24.12.2019 04:30 7,1 C 6,7 C 6,1 C 95 % 1013,9 hPa 0,0 l/m 0 min 0 min 0 W/m 12,9 km/h (3 Bft) 95,74 %
24.12.2019 04:32 7,1 C 6,7 C 6,1 C 95 % 1014,0 hPa 0,0 l/m 0 min 0 min 0 W/m 6,4 km/h (2 Bft) 95,74 %
24.12.2019 04:34 7,1 C 6,7 C 6,1 C 95 % 1014,0 hPa 0,0 l/m 0 min 0 min 0 W/m 22,5 km/h (4 Bft) 95,74 %
24.12.2019 04:36 7,1 C 6,7 C 6,1 C 95 % 1014,0 hPa 0,0 l/m 0 min 0 min 0 W/m 12,9 km/h (3 Bft) 93,62 %
24.12.2019 04:38 7,1 C 6,7 C 6,1 C 95 % 1014,0 hPa 0,0 l/m 0 min 0 min 0 W/m 12,9 km/h (3 Bft) 93,48 %
24.12.2019 04:40 7,1 C 6,7 C 5,6 C 95 % 1013,9 hPa 0,0 l/m 0 min 0 min 0 W/m 6,4 km/h (2 Bft) 95,74 %
24.12.2019 04:42 7,1 C 6,7 C 5,6 C 95 % 1013,8 hPa 0,0 l/m 0 min 0 min 0 W/m 6,4 km/h (2 Bft) 95,74 %
24.12.2019 04:44 7,1 C 6,7 C 5,6 C 95 % 1013,7 hPa 0,0 l/m 0 min 0 min 0 W/m 3,2 km/h (1 Bft) 97,87 %
24.12.2019 04:46 7,1 C 6,1 C 5,6 C 95 % 1013,7 hPa 0,0 l/m 0 min 0 min 0 W/m 6,4 km/h (2 Bft) 95,74 %
24.12.2019 04:48 7,1 C 6,1 C 5,6 C 95 % 1013,7 hPa 0,0 l/m 0 min 0 min 0 W/m 6,4 km/h (2 Bft) 97,87 %
24.12.2019 04:50 7,1 C 6,1 C 5,6 C 94 % 1013,7 hPa 0,0 l/m 0 min 0 min 0 W/m 3,2 km/h (1 Bft) 100,00 %
24.12.2019 04:52 7,1 C 6,1 C 5,6 C 94 % 1013,6 hPa 0,0 l/m 0 min 0 min 0 W/m 6,4 km/h (2 Bft) 97,87 %
24.12.2019 04:54 7,1 C 6,1 C 5,6 C 94 % 1013,5 hPa 0,0 l/m 0 min 0 min 0 W/m 6,4 km/h (2 Bft) 97,87 %
24.12.2019 04:56 7,1 C 6,1 C 5,6 C 94 % 1013,5 hPa 0,0 l/m 0 min 0 min 0 W/m 16,1 km/h (3 Bft) 100,00 %
24.12.2019 04:58 7,1 C 6,1 C 5,6 C 94 % 1013,5 hPa 0,0 l/m 0 min 0 min 0 W/m 12,9 km/h (3 Bft) 100,00 %
24.12.2019 05:00 7,1 C 6,1 C 5,6 C 94 % 1013,5 hPa 0,0 l/m 0 min 0 min 0 W/m 3,2 km/h (1 Bft) 97,87 %
24.12.2019 05:02 7,0 C 6,1 C 5,6 C 94 % 1013,5 hPa 0,0 l/m 0 min 0 min 0 W/m 12,9 km/h (3 Bft) 100,00 %
24.12.2019 05:04 7,0 C 6,1 C 5,6 C 94 % 1013,4 hPa 0,0 l/m 0 min 0 min 0 W/m 16,1 km/h (3 Bft) 100,00 %
24.12.2019 05:06 7,0 C 6,1 C 5,6 C 94 % 1013,3 hPa 0,0 l/m 0 min 0 min 0 W/m 12,9 km/h (3 Bft) 100,00 %
24.12.2019 05:08 6,9 C 6,1 C 5,6 C 94 % 1013,3 hPa 0,0 l/m 0 min 0 min 0 W/m 6,4 km/h (2 Bft) 100,00 %
24.12.2019 05:10 6,9 C 6,1 C 5,6 C 94 % 1013,4 hPa 0,0 l/m 0 min 0 min 0 W/m 12,9 km/h (3 Bft) 97,87 %
24.12.2019 05:12 6,9 C 6,1 C 5,6 C 94 % 1013,4 hPa 0,0 l/m 0 min 0 min 0 W/m 6,4 km/h (2 Bft) 100,00 %
24.12.2019 05:14 6,9 C 6,1 C 5,6 C 94 % 1013,5 hPa 0,0 l/m 0 min 0 min 0 W/m 12,9 km/h (3 Bft) 97,83 %
24.12.2019 05:16 6,9 C 6,1 C 5,6 C 94 % 1013,4 hPa 0,0 l/m 0 min 0 min 0 W/m 12,9 km/h (3 Bft) 100,00 %
24.12.2019 05:18 6,9 C 6,1 C 5,6 C 94 % 1013,4 hPa 0,0 l/m 0 min 0 min 0 W/m 12,9 km/h (3 Bft) 97,87 %
24.12.2019 05:20 6,8 C 6,1 C 5,0 C 94 % 1013,3 hPa 0,0 l/m 0 min 0 min 0 W/m 6,4 km/h (2 Bft) 100,00 %
24.12.2019 05:22 6,8 C 5,6 C 5,0 C 94 % 1013,2 hPa 0,0 l/m 0 min 0 min 0 W/m 3,2 km/h (1 Bft) 56,52 %
24.12.2019 05:24 6,8 C 5,6 C 5,0 C 94 % 1013,2 hPa 0,0 l/m 0 min 0 min 0 W/m 19,3 km/h (3 Bft) 100,00 %
24.12.2019 05:26 6,8 C 6,1 C 5,0 C 94 % 1013,1 hPa 0,0 l/m 0 min 0 min 0 W/m 12,9 km/h (3 Bft) 100,00 %
24.12.2019 05:28 6,8 C 6,1 C 5,0 C 94 % 1013,1 hPa 0,0 l/m 0 min 0 min 0 W/m 12,9 km/h (3 Bft) 97,87 %
24.12.2019 05:30 6,7 C 6,1 C 5,0 C 94 % 1013,0 hPa 0,0 l/m 0 min 0 min 0 W/m 12,9 km/h (3 Bft) 100,00 %
24.12.2019 05:32 6,7 C 6,1 C 5,0 C 94 % 1013,1 hPa 0,0 l/m 0 min 0 min 0 W/m 12,9 km/h (3 Bft) 100,00 %
24.12.2019 05:34 6,7 C 6,1 C 5,0 C 94 % 1013,0 hPa 0,0 l/m 0 min 0 min 0 W/m 12,9 km/h (3 Bft) 97,87 %
24.12.2019 05:36 6,7 C 5,6 C 5,0 C 94 % 1013,0 hPa 0,0 l/m 0 min 0 min 0 W/m 6,4 km/h (2 Bft) 97,87 %
24.12.2019 05:38 6,7 C 6,1 C 5,0 C 94 % 1012,9 hPa 0,0 l/m 0 min 0 min 0 W/m 16,1 km/h (3 Bft) 97,83 %
24.12.2019 05:40 6,7 C 6,1 C 5,0 C 94 % 1012,8 hPa 0,0 l/m 0 min 0 min 0 W/m 12,9 km/h (3 Bft) 97,87 %
24.12.2019 05:42 6,6 C 6,1 C 5,0 C 94 % 1012,8 hPa 0,0 l/m 0 min 0 min 0 W/m 12,9 km/h (3 Bft) 97,87 %
24.12.2019 05:44 6,6 C 6,1 C 5,0 C 94 % 1012,8 hPa 0,0 l/m 0 min 0 min 0 W/m 16,1 km/h (3 Bft) 97,87 %
24.12.2019 05:46 6,6 C 6,1 C 5,6 C 94 % 1012,7 hPa 0,0 l/m 0 min 0 min 0 W/m 22,5 km/h (4 Bft) 97,87 %
24.12.2019 05:48 6,6 C 6,1 C 5,6 C 94 % 1012,8 hPa 0,0 l/m 0 min 0 min 0 W/m 6,4 km/h (2 Bft) 95,65 %
24.12.2019 05:50 6,6 C 6,1 C 5,0 C 94 % 1012,7 hPa 0,0 l/m 0 min 0 min 0 W/m 12,9 km/h (3 Bft) 97,87 %
24.12.2019 05:52 6,6 C 6,1 C 5,6 C 94 % 1012,6 hPa 0,0 l/m 0 min 0 min 0 W/m 12,9 km/h (3 Bft) 97,87 %
24.12.2019 05:54 6,6 C 6,1 C 5,0 C 93 % 1012,7 hPa 0,0 l/m 0 min 0 min 0 W/m 6,4 km/h (2 Bft) 95,74 %
24.12.2019 05:56 6,6 C 6,1 C 5,0 C 93 % 1012,7 hPa 0,0 l/m 0 min 0 min 0 W/m 3,2 km/h (1 Bft) 97,87 %
24.12.2019 05:58 6,6 C 6,1 C 5,0 C 93 % 1012,7 hPa 0,0 l/m 0 min 0 min 0 W/m 6,4 km/h (2 Bft) 97,87 %
24.12.2019 06:00 6,6 C 5,6 C 5,0 C 93 % 1012,6 hPa 0,0 l/m 0 min 0 min 0 W/m 0,0 km/h (0 Bft) 95,74 %
24.12.2019 06:02 6,6 C 6,1 C 5,0 C 93 % 1012,5 hPa 0,0 l/m 0 min 0 min 0 W/m 12,9 km/h (3 Bft) 97,83 %
24.12.2019 06:04 6,6 C 6,1 C 5,0 C 93 % 1012,5 hPa 0,0 l/m 0 min 0 min 0 W/m 12,9 km/h (3 Bft) 97,87 %
24.12.2019 06:08 6,6 C 6,1 C 5,0 C 93 % 1012,4 hPa 0,0 l/m 0 min 0 min 0 W/m 12,9 km/h (3 Bft) 97,87 %
24.12.2019 06:10 6,5 C 6,1 C 5,0 C 93 % 1012,3 hPa 0,0 l/m 0 min 0 min 0 W/m 16,1 km/h (3 Bft) 97,87 %
24.12.2019 06:12 6,5 C 6,1 C 5,0 C 93 % 1012,3 hPa 0,0 l/m 0 min 0 min 0 W/m 16,1 km/h (3 Bft) 97,83 %
24.12.2019 06:14 6,5 C 6,1 C 5,0 C 93 % 1012,3 hPa 0,0 l/m 0 min 0 min 0 W/m 6,4 km/h (2 Bft) 97,87 %
24.12.2019 06:16 6,5 C 6,1 C 5,0 C 93 % 1012,3 hPa 0,0 l/m 0 min 0 min 0 W/m 12,9 km/h (3 Bft) 97,87 %
24.12.2019 06:18 6,5 C 6,1 C 5,0 C 93 % 1012,3 hPa 0,0 l/m 0 min 0 min 0 W/m 12,9 km/h (3 Bft) 97,87 %
24.12.2019 06:20 6,5 C 6,1 C 5,0 C 93 % 1012,3 hPa 0,0 l/m 0 min 0 min 0 W/m 6,4 km/h (2 Bft) 97,87 %
24.12.2019 06:22 6,5 C 6,1 C 5,0 C 93 % 1012,2 hPa 0,0 l/m 0 min 0 min 0 W/m 12,9 km/h (3 Bft) 100,00 %
24.12.2019 06:24 6,5 C 5,6 C 5,0 C 93 % 1012,2 hPa 0,0 l/m 0 min 0 min 0 W/m 16,1 km/h (3 Bft) 100,00 %
24.12.2019 06:26 6,5 C 5,6 C 5,0 C 93 % 1012,2 hPa 0,0 l/m 0 min 0 min 0 W/m 12,9 km/h (3 Bft) 100,00 %
24.12.2019 06:28 6,5 C 5,6 C 5,0 C 93 % 1012,2 hPa 0,0 l/m 0 min 0 min 0 W/m 12,9 km/h (3 Bft) 95,74 %
24.12.2019 06:30 6,5 C 5,6 C 5,0 C 93 % 1012,2 hPa 0,0 l/m 0 min 0 min 0 W/m 6,4 km/h (2 Bft) 100,00 %
24.12.2019 06:32 6,5 C 5,6 C 5,0 C 93 % 1012,0 hPa 0,0 l/m 0 min 0 min 0 W/m 6,4 km/h (2 Bft) 97,87 %
24.12.2019 06:34 6,5 C 5,6 C 5,0 C 93 % 1012,0 hPa 0,0 l/m 0 min 0 min 0 W/m 12,9 km/h (3 Bft) 100,00 %
24.12.2019 06:36 6,4 C 5,6 C 5,0 C 93 % 1011,9 hPa 0,0 l/m 0 min 0 min 0 W/m 16,1 km/h (3 Bft) 97,83 %
24.12.2019 06:38 6,4 C 5,6 C 5,0 C 93 % 1011,8 hPa 0,0 l/m 0 min 0 min 0 W/m 12,9 km/h (3 Bft) 95,74 %
24.12.2019 06:40 6,4 C 5,6 C 5,0 C 93 % 1011,7 hPa 0,0 l/m 0 min 0 min 0 W/m 16,1 km/h (3 Bft) 97,87 %
24.12.2019 06:42 6,4 C 5,6 C 5,0 C 93 % 1011,6 hPa 0,0 l/m 0 min 0 min 0 W/m 12,9 km/h (3 Bft) 55,32 %
24.12.2019 06:44 6,3 C 5,6 C 5,0 C 93 % 1011,6 hPa 0,0 l/m 0 min 0 min 0 W/m 16,1 km/h (3 Bft) 95,74 %
24.12.2019 06:46 6,3 C 5,6 C 5,0 C 93 % 1011,5 hPa 0,0 l/m 0 min 0 min 0 W/m 16,1 km/h (3 Bft) 100,00 %
24.12.2019 06:48 6,3 C 5,6 C 4,4 C 93 % 1011,5 hPa 0,0 l/m 0 min 0 min 0 W/m 25,7 km/h (4 Bft) 97,83 %
24.12.2019 06:50 6,3 C 5,6 C 4,4 C 93 % 1011,5 hPa 0,0 l/m 0 min 0 min 0 W/m 16,1 km/h (3 Bft) 93,62 %
24.12.2019 06:52 6,2 C 5,6 C 4,4 C 93 % 1011,5 hPa 0,0 l/m 0 min 0 min 0 W/m 16,1 km/h (3 Bft) 95,74 %
24.12.2019 06:54 6,2 C 5,6 C 4,4 C 93 % 1011,5 hPa 0,0 l/m 0 min 0 min 0 W/m 16,1 km/h (3 Bft) 97,87 %
24.12.2019 06:56 6,2 C 5,6 C 4,4 C 93 % 1011,4 hPa 0,0 l/m 0 min 0 min 0 W/m 6,4 km/h (2 Bft) 95,74 %
24.12.2019 06:58 6,2 C 5,6 C 4,4 C 93 % 1011,5 hPa 0,0 l/m 0 min 0 min 0 W/m 19,3 km/h (3 Bft) 97,83 %
24.12.2019 07:00 6,1 C 5,6 C 4,4 C 93 % 1011,6 hPa 0,0 l/m 0 min 0 min 0 W/m 12,9 km/h (3 Bft) 100,00 %
24.12.2019 07:02 6,1 C 5,6 C 4,4 C 93 % 1011,6 hPa 0,0 l/m 0 min 0 min 0 W/m 16,1 km/h (3 Bft) 97,87 %
24.12.2019 07:04 6,1 C 5,6 C 4,4 C 93 % 1011,7 hPa 0,0 l/m 0 min 0 min 0 W/m 16,1 km/h (3 Bft) 97,87 %
24.12.2019 07:06 6,1 C 5,6 C 5,0 C 93 % 1011,6 hPa 0,0 l/m 0 min 0 min 0 W/m 12,9 km/h (3 Bft) 97,87 %
24.12.2019 07:08 6,1 C 5,6 C 5,0 C 93 % 1011,6 hPa 0,0 l/m 0 min 0 min 0 W/m 19,3 km/h (3 Bft) 97,14 %
24.12.2019 07:10 6,1 C 5,6 C 5,0 C 93 % 1011,5 hPa 0,0 l/m 0 min 0 min 0 W/m 12,9 km/h (3 Bft) 97,87 %
24.12.2019 07:12 6,1 C 5,6 C 5,0 C 93 % 1011,5 hPa 0,0 l/m 0 min 0 min 0 W/m 12,9 km/h (3 Bft) 97,87 %
24.12.2019 07:14 6,1 C 5,6 C 5,0 C 93 % 1011,4 hPa 0,0 l/m 0 min 0 min 0 W/m 19,3 km/h (3 Bft) 97,83 %
24.12.2019 07:16 6,1 C 5,6 C 5,0 C 93 % 1011,3 hPa 0,0 l/m 0 min 0 min 0 W/m 16,1 km/h (3 Bft) 95,74 %
24.12.2019 07:18 6,1 C 5,6 C 5,0 C 93 % 1011,2 hPa 0,0 l/m 0 min 0 min 0 W/m 19,3 km/h (3 Bft) 95,74 %
24.12.2019 07:20 6,1 C 5,6 C 5,0 C 93 % 1011,1 hPa 0,0 l/m 0 min 0 min 0 W/m 19,3 km/h (3 Bft) 95,74 %
24.12.2019 07:22 6,0 C 5,6 C 5,0 C 93 % 1011,0 hPa 0,0 l/m 0 min 0 min 0 W/m 19,3 km/h (3 Bft) 97,87 %
24.12.2019 07:24 6,1 C 5,6 C 5,0 C 93 % 1010,9 hPa 0,0 l/m 0 min 0 min 0 W/m 16,1 km/h (3 Bft) 97,87 %
24.12.2019 07:26 6,0 C 5,6 C 5,0 C 93 % 1011,0 hPa 0,0 l/m 0 min 0 min 0 W/m 12,9 km/h (3 Bft) 97,83 %
24.12.2019 07:28 6,0 C 5,6 C 5,0 C 93 % 1011,0 hPa 0,0 l/m 0 min 0 min 0 W/m 19,3 km/h (3 Bft) 95,74 %
24.12.2019 07:30 6,0 C 5,6 C 5,0 C 93 % 1011,0 hPa 0,0 l/m 0 min 0 min 0 W/m 19,3 km/h (3 Bft) 97,87 %
24.12.2019 07:32 6,0 C 5,6 C 5,0 C 93 % 1010,9 hPa 0,0 l/m 0 min 0 min 0 W/m 12,9 km/h (3 Bft) 97,87 %
24.12.2019 07:34 6,0 C 5,6 C 5,0 C 93 % 1010,9 hPa 0,0 l/m 0 min 0 min 0 W/m 16,1 km/h (3 Bft) 97,87 %
24.12.2019 07:36 6,0 C 5,6 C 5,0 C 93 % 1010,8 hPa 0,0 l/m 0 min 0 min 0 W/m 12,9 km/h (3 Bft) 97,87 %
24.12.2019 07:38 6,1 C 5,6 C 5,0 C 93 % 1010,8 hPa 0,0 l/m 0 min 0 min 0 W/m 12,9 km/h (3 Bft) 97,83 %
24.12.2019 07:40 6,1 C 5,6 C 5,0 C 93 % 1010,8 hPa 0,0 l/m 0 min 0 min 0 W/m 12,9 km/h (3 Bft) 97,87 %
24.12.2019 07:42 6,1 C 5,6 C 5,0 C 93 % 1010,7 hPa 0,0 l/m 0 min 0 min 0 W/m 19,3 km/h (3 Bft) 97,87 %
24.12.2019 07:44 6,1 C 5,6 C 5,0 C 93 % 1010,7 hPa 0,0 l/m 0 min 0 min 0 W/m 16,1 km/h (3 Bft) 97,87 %
24.12.2019 07:46 6,1 C 5,6 C 5,0 C 93 % 1010,7 hPa 0,0 l/m 0 min 0 min 0 W/m 22,5 km/h (4 Bft) 97,87 %
24.12.2019 07:48 6,1 C 5,6 C 5,0 C 93 % 1010,7 hPa 0,0 l/m 0 min 0 min 0 W/m 22,5 km/h (4 Bft) 95,65 %
24.12.2019 07:50 6,1 C 5,6 C 5,0 C 93 % 1010,7 hPa 0,0 l/m 0 min 0 min 0 W/m 22,5 km/h (4 Bft) 95,74 %
24.12.2019 07:52 6,1 C 5,6 C 5,0 C 93 % 1010,7 hPa 0,0 l/m 0 min 0 min 0 W/m 16,1 km/h (3 Bft) 97,87 %
24.12.2019 07:54 6,1 C 5,6 C 5,0 C 93 % 1010,6 hPa 0,0 l/m 0 min 0 min 0 W/m 22,5 km/h (4 Bft) 97,87 %
24.12.2019 07:56 6,1 C 5,6 C 5,0 C 93 % 1010,6 hPa 0,0 l/m 0 min 0 min 0 W/m 19,3 km/h (3 Bft) 97,87 %
24.12.2019 07:58 6,2 C 5,6 C 5,0 C 93 % 1010,6 hPa 0,0 l/m 0 min 0 min 0 W/m 19,3 km/h (3 Bft) 97,87 %
24.12.2019 08:00 6,2 C 5,6 C 5,0 C 93 % 1010,5 hPa 0,0 l/m 0 min 0 min 0 W/m 25,7 km/h (4 Bft) 97,87 %
24.12.2019 08:02 6,2 C 5,6 C 5,0 C 93 % 1010,4 hPa 0,0 l/m 0 min 2 min 0 W/m 19,3 km/h (3 Bft) 97,83 %
24.12.2019 08:04 6,2 C 5,0 C 4,4 C 93 % 1010,4 hPa 0,0 l/m 0 min 2 min 0 W/m 29,0 km/h (5 Bft) 95,74 %
24.12.2019 08:06 6,2 C 5,0 C 4,4 C 93 % 1010,3 hPa 0,0 l/m 0 min 2 min 0 W/m 16,1 km/h (3 Bft) 93,62 %
24.12.2019 08:08 6,2 C 4,4 C 4,4 C 93 % 1010,2 hPa 0,2 l/m 0 min 2 min 0 W/m 16,1 km/h (3 Bft) 97,87 %
24.12.2019 08:10 6,2 C 4,4 C 4,4 C 93 % 1010,1 hPa 0,0 l/m 0 min 2 min 0 W/m 16,1 km/h (3 Bft) 97,87 %
24.12.2019 08:12 6,2 C 4,4 C 4,4 C 93 % 1010,0 hPa 0,0 l/m 0 min 2 min 0 W/m 22,5 km/h (4 Bft) 100,00 %
24.12.2019 08:14 6,2 C 4,4 C 4,4 C 93 % 1010,0 hPa 0,0 l/m 0 min 2 min 0 W/m 19,3 km/h (3 Bft) 97,87 %
24.12.2019 08:16 6,2 C 4,4 C 4,4 C 93 % 1009,9 hPa 0,2 l/m 0 min 2 min 0 W/m 16,1 km/h (3 Bft) 95,74 %
24.12.2019 08:18 6,2 C 4,4 C 4,4 C 93 % 1009,8 hPa 0,0 l/m 0 min 2 min 0 W/m 19,3 km/h (3 Bft) 100,00 %
24.12.2019 08:20 6,2 C 4,4 C 3,9 C 93 % 1009,7 hPa 0,0 l/m 0 min 2 min 0 W/m 19,3 km/h (3 Bft) 100,00 %
24.12.2019 08:22 6,2 C 4,4 C 4,4 C 93 % 1009,5 hPa 0,2 l/m 0 min 2 min 0 W/m 19,3 km/h (3 Bft) 97,87 %
24.12.2019 08:24 6,2 C 4,4 C 3,9 C 94 % 1009,5 hPa 0,0 l/m 0 min 2 min 0 W/m 16,1 km/h (3 Bft) 95,65 %
24.12.2019 08:26 6,2 C 4,4 C 3,9 C 94 % 1009,4 hPa 0,0 l/m 0 min 2 min 0 W/m 22,5 km/h (4 Bft) 95,74 %
24.12.2019 08:28 6,2 C 4,4 C 4,4 C 94 % 1009,4 hPa 0,0 l/m 0 min 2 min 0 W/m 16,1 km/h (3 Bft) 95,74 %
24.12.2019 08:30 6,2 C 4,4 C 4,4 C 94 % 1009,4 hPa 0,0 l/m 0 min 2 min 0 W/m 25,7 km/h (4 Bft) 97,87 %
24.12.2019 08:32 6,1 C 4,4 C 4,4 C 94 % 1009,4 hPa 0,0 l/m 0 min 0 min 0 W/m 19,3 km/h (3 Bft) 97,87 %
24.12.2019 08:34 6,1 C 5,0 C 4,4 C 94 % 1009,3 hPa 0,0 l/m 0 min 0 min 0 W/m 25,7 km/h (4 Bft) 95,74 %
24.12.2019 08:36 6,1 C 5,0 C 4,4 C 94 % 1009,2 hPa 0,0 l/m 0 min 0 min 0 W/m 22,5 km/h (4 Bft) 97,83 %
24.12.2019 08:38 6,1 C 5,0 C 4,4 C 94 % 1009,2 hPa 0,0 l/m 0 min 0 min 0 W/m 19,3 km/h (3 Bft) 97,87 %
24.12.2019 08:40 6,1 C 5,0 C 4,4 C 94 % 1009,2 hPa 0,0 l/m 0 min 0 min 0 W/m 25,7 km/h (4 Bft) 97,87 %
24.12.2019 08:42 6,1 C 5,0 C 4,4 C 94 % 1009,1 hPa 0,0 l/m 0 min 0 min 0 W/m 25,7 km/h (4 Bft) 97,87 %
24.12.2019 08:44 6,1 C 5,0 C 4,4 C 95 % 1009,1 hPa 0,0 l/m 0 min 0 min 0 W/m 19,3 km/h (3 Bft) 97,87 %
24.12.2019 08:46 6,1 C 5,0 C 4,4 C 95 % 1009,1 hPa 0,0 l/m 0 min 0 min 0 W/m 19,3 km/h (3 Bft) 97,83 %
24.12.2019 08:48 6,1 C 5,0 C 4,4 C 95 % 1009,1 hPa 0,0 l/m 0 min 0 min 0 W/m 22,5 km/h (4 Bft) 91,49 %
24.12.2019 08:50 6,1 C 5,0 C 4,4 C 95 % 1009,0 hPa 0,2 l/m 0 min 0 min 0 W/m 41,8 km/h (6 Bft) 97,87 %
24.12.2019 08:52 6,1 C 5,0 C 4,4 C 95 % 1009,0 hPa 0,0 l/m 0 min 0 min 0 W/m 25,7 km/h (4 Bft) 97,87 %
24.12.2019 08:54 6,1 C 5,0 C 4,4 C 95 % 1009,1 hPa 0,0 l/m 0 min 0 min 0 W/m 25,7 km/h (4 Bft) 95,74 %
24.12.2019 08:56 6,1 C 5,0 C 4,4 C 95 % 1009,1 hPa 0,0 l/m 0 min 0 min 0 W/m 25,7 km/h (4 Bft) 97,87 %
24.12.2019 08:58 6,1 C 5,0 C 4,4 C 95 % 1009,1 hPa 0,0 l/m 0 min 0 min 0 W/m 22,5 km/h (4 Bft) 97,83 %
24.12.2019 09:00 6,1 C 5,0 C 4,4 C 95 % 1009,1 hPa 0,0 l/m 0 min 0 min 0 W/m 16,1 km/h (3 Bft) 97,87 %
24.12.2019 09:02 6,1 C 5,0 C 4,4 C 95 % 1009,1 hPa 0,0 l/m 0 min 0 min 0 W/m 19,3 km/h (3 Bft) 97,87 %
24.12.2019 09:04 6,2 C 5,0 C 4,4 C 95 % 1009,0 hPa 0,0 l/m 0 min 0 min 0 W/m 29,0 km/h (5 Bft) 97,87 %
24.12.2019 09:06 6,2 C 5,0 C 4,4 C 95 % 1009,0 hPa 0,0 l/m 0 min 2 min 0 W/m 29,0 km/h (5 Bft) 97,87 %
24.12.2019 09:08 6,2 C 5,0 C 4,4 C 96 % 1009,0 hPa 0,0 l/m 0 min 2 min 0 W/m 22,5 km/h (4 Bft) 95,74 %
24.12.2019 09:10 6,2 C 5,0 C 4,4 C 96 % 1008,9 hPa 0,0 l/m 0 min 2 min 0 W/m 29,0 km/h (5 Bft) 100,00 %
24.12.2019 09:12 6,2 C 5,0 C 4,4 C 96 % 1008,8 hPa 0,0 l/m 0 min 0 min 2 W/m 25,7 km/h (4 Bft) 97,87 %
24.12.2019 09:14 6,2 C 5,0 C 4,4 C 96 % 1008,7 hPa 0,0 l/m 0 min 2 min 5 W/m 29,0 km/h (5 Bft) 97,87 %
24.12.2019 09:16 6,2 C 5,0 C 4,4 C 96 % 1008,6 hPa 0,0 l/m 0 min 2 min 5 W/m 38,6 km/h (5 Bft) 97,87 %
24.12.2019 09:18 6,2 C 5,0 C 4,4 C 96 % 1008,5 hPa 0,0 l/m 0 min 2 min 5 W/m 35,4 km/h (5 Bft) 95,74 %
24.12.2019 09:20 6,2 C 5,0 C 4,4 C 96 % 1008,5 hPa 0,2 l/m 0 min 2 min 5 W/m 38,6 km/h (5 Bft) 97,87 %
24.12.2019 09:22 6,2 C 5,0 C 4,4 C 96 % 1008,5 hPa 0,0 l/m 0 min 2 min 5 W/m 19,3 km/h (3 Bft) 97,83 %
24.12.2019 09:24 6,2 C 5,0 C 4,4 C 96 % 1008,5 hPa 0,0 l/m 0 min 2 min 5 W/m 25,7 km/h (4 Bft) 97,87 %
24.12.2019 09:26 6,2 C 5,0 C 4,4 C 96 % 1008,5 hPa 0,0 l/m 0 min 2 min 4 W/m 25,7 km/h (4 Bft) 97,87 %
24.12.2019 09:28 6,2 C 5,0 C 4,4 C 96 % 1008,5 hPa 0,0 l/m 0 min 2 min 0 W/m 35,4 km/h (5 Bft) 97,87 %
24.12.2019 09:30 6,2 C 5,0 C 4,4 C 96 % 1008,4 hPa 0,2 l/m 0 min 2 min 3 W/m 25,7 km/h (4 Bft) 95,83 %
24.12.2019 09:32 6,2 C 5,0 C 4,4 C 96 % 1008,5 hPa 0,0 l/m 0 min 2 min 5 W/m 19,3 km/h (3 Bft) 95,65 %
24.12.2019 09:34 6,2 C 5,0 C 4,4 C 96 % 1008,5 hPa 0,0 l/m 0 min 2 min 5 W/m 25,7 km/h (4 Bft) 97,87 %
24.12.2019 09:36 6,2 C 5,0 C 4,4 C 96 % 1008,5 hPa 0,0 l/m 0 min 2 min 5 W/m 19,3 km/h (3 Bft) 93,62 %
24.12.2019 09:38 6,2 C 5,0 C 4,4 C 96 % 1008,5 hPa 0,0 l/m 0 min 2 min 6 W/m 29,0 km/h (5 Bft) 97,87 %
24.12.2019 09:40 6,2 C 5,0 C 4,4 C 96 % 1008,4 hPa 0,2 l/m 0 min 2 min 7 W/m 29,0 km/h (5 Bft) 97,87 %
24.12.2019 09:42 6,2 C 5,0 C 4,4 C 96 % 1008,4 hPa 0,0 l/m 0 min 2 min 7 W/m 25,7 km/h (4 Bft) 95,74 %
24.12.2019 09:44 6,2 C 5,0 C 4,4 C 96 % 1008,3 hPa 0,0 l/m 0 min 2 min 10 W/m 22,5 km/h (4 Bft) 95,65 %
24.12.2019 09:46 6,2 C 5,0 C 4,4 C 97 % 1008,2 hPa 0,2 l/m 0 min 2 min 14 W/m 22,5 km/h (4 Bft) 95,74 %
24.12.2019 09:48 6,2 C 5,0 C 4,4 C 97 % 1008,1 hPa 0,0 l/m 0 min 2 min 19 W/m 19,3 km/h (3 Bft) 97,87 %
24.12.2019 09:50 6,2 C 5,0 C 4,4 C 97 % 1008,1 hPa 0,0 l/m 0 min 2 min 22 W/m 19,3 km/h (3 Bft) 97,87 %
24.12.2019 09:52 6,2 C 5,0 C 4,4 C 97 % 1008,0 hPa 0,2 l/m 0 min 2 min 21 W/m 22,5 km/h (4 Bft) 97,87 %
24.12.2019 09:54 6,1 C 5,0 C 4,4 C 97 % 1008,0 hPa 0,0 l/m 0 min 2 min 18 W/m 29,0 km/h (5 Bft) 100,00 %
24.12.2019 09:56 6,1 C 5,0 C 4,4 C 97 % 1008,0 hPa 0,0 l/m 0 min 2 min 17 W/m 22,5 km/h (4 Bft) 100,00 %
24.12.2019 09:58 6,1 C 5,0 C 4,4 C 97 % 1008,0 hPa 0,0 l/m 0 min 2 min 14 W/m 16,1 km/h (3 Bft) 97,87 %
24.12.2019 10:00 6,1 C 5,0 C 4,4 C 97 % 1008,0 hPa 0,0 l/m 0 min 2 min 11 W/m 25,7 km/h (4 Bft) 97,87 %
24.12.2019 10:02 6,2 C 5,0 C 4,4 C 97 % 1008,0 hPa 0,0 l/m 0 min 2 min 11 W/m 29,0 km/h (5 Bft) 100,00 %
24.12.2019 10:04 6,2 C 5,0 C 4,4 C 97 % 1007,9 hPa 0,0 l/m 0 min 2 min 11 W/m 22,5 km/h (4 Bft) 100,00 %
24.12.2019 10:06 6,2 C 5,0 C 4,4 C 97 % 1007,8 hPa 0,0 l/m 0 min 2 min 10 W/m 38,6 km/h (5 Bft) 100,00 %
24.12.2019 10:08 6,2 C 5,0 C 4,4 C 97 % 1007,9 hPa 0,0 l/m 0 min 2 min 8 W/m 25,7 km/h (4 Bft) 100,00 %
24.12.2019 10:10 6,2 C 5,0 C 5,0 C 97 % 1007,8 hPa 0,0 l/m 0 min 2 min 9 W/m 29,0 km/h (5 Bft) 100,00 %
24.12.2019 10:12 6,2 C 5,0 C 5,0 C 97 % 1007,8 hPa 0,0 l/m 0 min 2 min 11 W/m 19,3 km/h (3 Bft) 100,00 %
24.12.2019 10:14 6,2 C 5,0 C 5,0 C 97 % 1007,8 hPa 0,2 l/m 0 min 0 min 10 W/m 22,5 km/h (4 Bft) 100,00 %
24.12.2019 10:16 6,2 C 5,0 C 5,0 C 97 % 1007,8 hPa 0,0 l/m 0 min 0 min 12 W/m 19,3 km/h (3 Bft) 100,00 %
24.12.2019 10:18 6,2 C 5,0 C 5,0 C 97 % 1007,8 hPa 0,0 l/m 0 min 2 min 11 W/m 19,3 km/h (3 Bft) 100,00 %
24.12.2019 10:20 6,2 C 5,0 C 5,0 C 97 % 1007,7 hPa 0,2 l/m 0 min 2 min 11 W/m 25,7 km/h (4 Bft) 100,00 %
24.12.2019 10:22 6,2 C 5,0 C 5,0 C 98 % 1007,7 hPa 0,0 l/m 0 min 2 min 12 W/m 25,7 km/h (4 Bft) 97,87 %
24.12.2019 10:24 6,2 C 5,6 C 5,0 C 98 % 1007,6 hPa 0,0 l/m 0 min 0 min 14 W/m 19,3 km/h (3 Bft) 100,00 %
24.12.2019 10:26 6,2 C 5,6 C 5,0 C 98 % 1007,6 hPa 0,0 l/m 0 min 0 min 17 W/m 22,5 km/h (4 Bft) 97,87 %
24.12.2019 10:28 6,2 C 5,6 C 5,0 C 98 % 1007,6 hPa 0,0 l/m 0 min 2 min 16 W/m 22,5 km/h (4 Bft) 100,00 %
24.12.2019 10:30 6,2 C 5,6 C 5,0 C 98 % 1007,6 hPa 0,0 l/m 0 min 0 min 16 W/m 32,2 km/h (5 Bft) 97,87 %
24.12.2019 10:32 6,2 C 5,6 C 5,0 C 98 % 1007,6 hPa 0,0 l/m 0 min 0 min 16 W/m 35,4 km/h (5 Bft) 100,00 %
24.12.2019 10:34 6,2 C 5,6 C 5,0 C 98 % 1007,5 hPa 0,0 l/m 0 min 0 min 17 W/m 22,5 km/h (4 Bft) 100,00 %
24.12.2019 10:36 6,2 C 5,6 C 5,0 C 98 % 1007,5 hPa 0,0 l/m 0 min 0 min 20 W/m 25,7 km/h (4 Bft) 87,23 %
24.12.2019 10:38 6,2 C 5,6 C 5,0 C 98 % 1007,5 hPa 0,0 l/m 0 min 0 min 20 W/m 16,1 km/h (3 Bft) 44,83 %
24.12.2019 10:40 6,3 C 5,6 C 5,0 C 98 % 1007,5 hPa 0,0 l/m 0 min 0 min 21 W/m 16,1 km/h (3 Bft) 97,87 %
24.12.2019 10:42 6,3 C 5,6 C 5,0 C 98 % 1007,5 hPa 0,0 l/m 0 min 0 min 25 W/m 19,3 km/h (3 Bft) 97,83 %
24.12.2019 10:44 6,3 C 5,6 C 5,0 C 98 % 1007,5 hPa 0,0 l/m 0 min 0 min 21 W/m 16,1 km/h (3 Bft) 97,87 %
24.12.2019 10:46 6,3 C 5,6 C 5,0 C 98 % 1007,5 hPa 0,0 l/m 0 min 0 min 17 W/m 19,3 km/h (3 Bft) 97,87 %
24.12.2019 10:48 6,3 C 5,6 C 5,0 C 98 % 1007,5 hPa 0,0 l/m 0 min 0 min 17 W/m 22,5 km/h (4 Bft) 97,87 %
24.12.2019 10:50 6,3 C 5,6 C 5,0 C 98 % 1007,5 hPa 0,0 l/m 0 min 0 min 20 W/m 6,4 km/h (2 Bft) 97,87 %
24.12.2019 10:52 6,3 C 5,6 C 5,0 C 98 % 1007,5 hPa 0,0 l/m 0 min 0 min 21 W/m 16,1 km/h (3 Bft) 97,87 %
24.12.2019 10:54 6,4 C 5,6 C 5,0 C 98 % 1007,5 hPa 0,0 l/m 0 min 0 min 18 W/m 19,3 km/h (3 Bft) 97,83 %
24.12.2019 10:56 6,4 C 5,6 C 5,0 C 98 % 1007,5 hPa 0,0 l/m 0 min 0 min 15 W/m 16,1 km/h (3 Bft) 95,74 %
24.12.2019 10:58 6,4 C 5,6 C 5,0 C 98 % 1007,5 hPa 0,0 l/m 0 min 0 min 18 W/m 22,5 km/h (4 Bft) 95,74 %
24.12.2019 11:00 6,4 C 5,6 C 5,0 C 98 % 1007,5 hPa 0,0 l/m 0 min 0 min 22 W/m 22,5 km/h (4 Bft) 95,74 %
24.12.2019 11:02 6,5 C 5,6 C 5,0 C 98 % 1007,5 hPa 0,0 l/m 0 min 0 min 31 W/m 19,3 km/h (3 Bft) 95,74 %
24.12.2019 11:04 6,5 C 6,1 C 5,6 C 98 % 1007,4 hPa 0,0 l/m 0 min 0 min 38 W/m 19,3 km/h (3 Bft) 95,74 %
24.12.2019 11:06 6,5 C 6,1 C 5,6 C 98 % 1007,4 hPa 0,0 l/m 0 min 0 min 27 W/m 25,7 km/h (4 Bft) 97,83 %
24.12.2019 11:08 6,6 C 6,1 C 5,6 C 98 % 1007,3 hPa 0,0 l/m 0 min 0 min 23 W/m 16,1 km/h (3 Bft) 95,74 %
24.12.2019 11:10 6,6 C 6,1 C 5,6 C 98 % 1007,3 hPa 0,0 l/m 0 min 0 min 24 W/m 25,7 km/h (4 Bft) 93,62 %
24.12.2019 11:12 6,7 C 6,1 C 5,6 C 98 % 1007,1 hPa 0,0 l/m 0 min 0 min 43 W/m 19,3 km/h (3 Bft) 95,74 %
24.12.2019 11:14 6,7 C 6,1 C 5,6 C 98 % 1007,1 hPa 0,0 l/m 0 min 0 min 49 W/m 29,0 km/h (5 Bft) 95,74 %
24.12.2019 11:16 6,8 C 6,7 C 5,6 C 98 % 1007,0 hPa 0,0 l/m 0 min 0 min 57 W/m 19,3 km/h (3 Bft) 91,49 %
24.12.2019 11:18 6,8 C 6,7 C 6,1 C 99 % 1007,0 hPa 0,0 l/m 0 min 0 min 50 W/m 19,3 km/h (3 Bft) 95,65 %
24.12.2019 11:20 6,9 C 6,7 C 6,1 C 99 % 1007,0 hPa 0,0 l/m 0 min 0 min 41 W/m 16,1 km/h (3 Bft) 93,62 %
24.12.2019 11:22 7,0 C 6,7 C 6,1 C 99 % 1006,9 hPa 0,0 l/m 0 min 0 min 34 W/m 16,1 km/h (3 Bft) 95,74 %
24.12.2019 11:24 7,1 C 6,7 C 6,1 C 99 % 1006,9 hPa 0,0 l/m 0 min 0 min 32 W/m 22,5 km/h (4 Bft) 95,74 %
24.12.2019 11:26 7,1 C 6,7 C 6,1 C 99 % 1006,8 hPa 0,0 l/m 0 min 0 min 28 W/m 25,7 km/h (4 Bft) 93,62 %
24.12.2019 11:28 7,2 C 6,7 C 6,1 C 99 % 1006,7 hPa 0,0 l/m 0 min 0 min 37 W/m 22,5 km/h (4 Bft) 97,87 %
24.12.2019 11:30 7,2 C 6,7 C 6,1 C 99 % 1006,7 hPa 0,0 l/m 0 min 0 min 46 W/m 25,7 km/h (4 Bft) 93,48 %
24.12.2019 11:32 7,3 C 6,7 C 6,1 C 99 % 1006,7 hPa 0,0 l/m 0 min 0 min 57 W/m 16,1 km/h (3 Bft) 97,87 %
24.12.2019 11:34 7,3 C 6,7 C 6,7 C 99 % 1006,6 hPa 0,0 l/m 0 min 0 min 68 W/m 22,5 km/h (4 Bft) 100,00 %
24.12.2019 11:36 7,4 C 7,2 C 6,7 C 99 % 1006,6 hPa 0,0 l/m 0 min 0 min 63 W/m 16,1 km/h (3 Bft) 97,87 %
24.12.2019 11:38 7,4 C 7,2 C 6,7 C 99 % 1006,5 hPa 0,0 l/m 0 min 0 min 54 W/m 25,7 km/h (4 Bft) 95,74 %
24.12.2019 11:40 7,5 C 7,2 C 6,7 C 99 % 1006,5 hPa 0,0 l/m 0 min 0 min 58 W/m 29,0 km/h (5 Bft) 91,30 %
24.12.2019 11:42 7,6 C 7,2 C 6,7 C 99 % 1006,5 hPa 0,0 l/m 0 min 0 min 64 W/m 22,5 km/h (4 Bft) 93,62 %
24.12.2019 11:44 7,7 C 7,2 C 6,7 C 99 % 1006,5 hPa 0,0 l/m 0 min 0 min 74 W/m 29,0 km/h (5 Bft) 95,74 %
24.12.2019 11:46 7,7 C 7,2 C 6,7 C 99 % 1006,4 hPa 0,0 l/m 0 min 0 min 73 W/m 25,7 km/h (4 Bft) 95,74 %
24.12.2019 11:48 7,8 C 7,8 C 6,7 C 99 % 1006,4 hPa 0,0 l/m 0 min 0 min 90 W/m 22,5 km/h (4 Bft) 95,74 %
24.12.2019 11:50 7,8 C 7,8 C 7,2 C 99 % 1006,4 hPa 0,0 l/m 0 min 0 min 92 W/m 25,7 km/h (4 Bft) 95,74 %
24.12.2019 11:52 7,9 C 7,8 C 7,2 C 99 % 1006,4 hPa 0,0 l/m 0 min 0 min 85 W/m 32,2 km/h (5 Bft) 93,48 %
24.12.2019 11:54 8,0 C 7,8 C 7,2 C 99 % 1006,3 hPa 0,0 l/m 0 min 0 min 101 W/m 35,4 km/h (5 Bft) 93,62 %
24.12.2019 11:56 8,1 C 7,8 C 7,2 C 99 % 1006,3 hPa 0,0 l/m 0 min 0 min 104 W/m 35,4 km/h (5 Bft) 95,74 %
24.12.2019 11:58 8,1 C 7,8 C 7,2 C 99 % 1006,3 hPa 0,0 l/m 0 min 0 min 107 W/m 25,7 km/h (4 Bft) 95,74 %
24.12.2019 12:00 8,2 C 7,8 C 7,2 C 99 % 1006,2 hPa 0,0 l/m 0 min 0 min 84 W/m 29,0 km/h (5 Bft) 95,74 %
24.12.2019 12:02 8,2 C 7,8 C 7,2 C 99 % 1006,3 hPa 0,0 l/m 0 min 0 min 64 W/m 45,1 km/h (6 Bft) 95,74 %
24.12.2019 12:04 8,3 C 7,8 C 7,2 C 99 % 1006,3 hPa 0,0 l/m 0 min 0 min 60 W/m 22,5 km/h (4 Bft) 95,65 %
24.12.2019 12:08 8,4 C 7,8 C 7,2 C 99 % 1006,4 hPa 0,0 l/m 0 min 0 min 67 W/m 25,7 km/h (4 Bft) 95,65 %
24.12.2019 12:10 8,4 C 7,8 C 7,2 C 99 % 1006,3 hPa 0,0 l/m 0 min 0 min 77 W/m 29,0 km/h (5 Bft) 95,65 %
24.12.2019 12:12 8,4 C 7,8 C 7,2 C 99 % 1006,2 hPa 0,0 l/m 0 min 0 min 53 W/m 32,2 km/h (5 Bft) 95,65 %
24.12.2019 12:14 8,5 C 7,8 C 7,2 C 99 % 1006,2 hPa 0,0 l/m 0 min 0 min 42 W/m 32,2 km/h (5 Bft) 95,65 %
24.12.2019 12:16 8,6 C 7,8 C 7,2 C 99 % 1006,1 hPa 0,0 l/m 0 min 0 min 59 W/m 32,2 km/h (5 Bft) 95,73 %
24.12.2019 12:18 8,6 C 7,8 C 7,2 C 99 % 1006,2 hPa 0,0 l/m 0 min 0 min 46 W/m 22,5 km/h (4 Bft) 100,00 %
24.12.2019 12:20 8,6 C 7,8 C 7,2 C 98 % 1006,1 hPa 0,0 l/m 0 min 0 min 45 W/m 19,3 km/h (3 Bft) 100,00 %
24.12.2019 12:22 8,6 C 7,8 C 7,2 C 98 % 1006,2 hPa 0,0 l/m 0 min 0 min 46 W/m 22,5 km/h (4 Bft) 100,00 %
24.12.2019 12:24 8,7 C 7,8 C 7,2 C 98 % 1006,1 hPa 0,0 l/m 0 min 0 min 63 W/m 29,0 km/h (5 Bft) 97,87 %
24.12.2019 12:26 8,7 C 8,3 C 7,2 C 98 % 1006,2 hPa 0,0 l/m 0 min 0 min 71 W/m 16,1 km/h (3 Bft) 100,00 %
24.12.2019 12:28 8,7 C 8,3 C 7,2 C 98 % 1006,2 hPa 0,0 l/m 0 min 0 min 80 W/m 35,4 km/h (5 Bft) 100,00 %
24.12.2019 12:30 8,8 C 8,3 C 7,8 C 98 % 1006,2 hPa 0,0 l/m 0 min 0 min 85 W/m 25,7 km/h (4 Bft) 100,00 %
24.12.2019 12:32 8,8 C 8,3 C 7,8 C 98 % 1006,2 hPa 0,0 l/m 0 min 0 min 88 W/m 29,0 km/h (5 Bft) 97,87 %
24.12.2019 12:34 8,8 C 8,3 C 7,8 C 98 % 1006,2 hPa 0,0 l/m 0 min 0 min 93 W/m 19,3 km/h (3 Bft) 100,00 %
24.12.2019 12:36 8,9 C 8,9 C 7,8 C 97 % 1006,2 hPa 0,0 l/m 0 min 0 min 107 W/m 19,3 km/h (3 Bft) 100,00 %
24.12.2019 12:38 8,9 C 8,9 C 7,8 C 97 % 1006,3 hPa 0,0 l/m 0 min 0 min 103 W/m 22,5 km/h (4 Bft) 100,00 %
24.12.2019 12:40 9,1 C 8,9 C 7,8 C 97 % 1006,4 hPa 0,0 l/m 0 min 0 min 117 W/m 19,3 km/h (3 Bft) 97,83 %
24.12.2019 12:42 9,1 C 8,9 C 7,8 C 97 % 1006,2 hPa 0,0 l/m 0 min 0 min 147 W/m 22,5 km/h (4 Bft) 100,00 %
24.12.2019 12:44 9,2 C 8,9 C 7,8 C 97 % 1006,4 hPa 0,0 l/m 0 min 0 min 118 W/m 22,5 km/h (4 Bft) 100,00 %
24.12.2019 12:46 9,2 C 8,9 C 7,8 C 97 % 1006,3 hPa 0,0 l/m 0 min 0 min 88 W/m 19,3 km/h (3 Bft) 100,00 %
24.12.2019 12:48 9,3 C 8,3 C 7,8 C 97 % 1006,3 hPa 0,0 l/m 0 min 0 min 69 W/m 29,0 km/h (5 Bft) 100,00 %
24.12.2019 12:50 9,3 C 8,3 C 7,8 C 97 % 1006,3 hPa 0,0 l/m 0 min 0 min 47 W/m 16,1 km/h (3 Bft) 100,00 %
24.12.2019 12:52 9,4 C 8,3 C 7,8 C 96 % 1006,4 hPa 0,0 l/m 0 min 0 min 48 W/m 16,1 km/h (3 Bft) 100,00 %
24.12.2019 12:54 9,4 C 8,3 C 7,8 C 96 % 1006,2 hPa 0,0 l/m 0 min 0 min 55 W/m 32,2 km/h (5 Bft) 100,00 %
24.12.2019 12:56 9,4 C 8,3 C 7,8 C 96 % 1006,3 hPa 0,0 l/m 0 min 0 min 58 W/m 19,3 km/h (3 Bft) 100,00 %
24.12.2019 12:58 9,4 C 9,4 C 7,8 C 96 % 1006,5 hPa 0,0 l/m 0 min 0 min 72 W/m 19,3 km/h (3 Bft) 100,00 %
24.12.2019 13:00 9,5 C 8,9 C 8,3 C 96 % 1006,4 hPa 0,0 l/m 0 min 0 min 91 W/m 35,4 km/h (5 Bft) 100,00 %
24.12.2019 13:02 9,6 C 8,9 C 8,3 C 95 % 1006,5 hPa 0,0 l/m 0 min 0 min 97 W/m 19,3 km/h (3 Bft) 97,83 %
24.12.2019 13:04 9,6 C 8,9 C 8,3 C 95 % 1006,5 hPa 0,0 l/m 0 min 0 min 90 W/m 19,3 km/h (3 Bft) 100,00 %
24.12.2019 13:06 9,7 C 8,9 C 8,3 C 95 % 1006,6 hPa 0,0 l/m 0 min 0 min 75 W/m 32,2 km/h (5 Bft) 100,00 %
24.12.2019 13:08 9,7 C 8,9 C 7,8 C 95 % 1006,5 hPa 0,0 l/m 0 min 0 min 58 W/m 22,5 km/h (4 Bft) 100,00 %
24.12.2019 13:10 9,7 C 8,9 C 7,8 C 94 % 1006,6 hPa 0,0 l/m 0 min 0 min 50 W/m 19,3 km/h (3 Bft) 100,00 %
24.12.2019 13:12 9,7 C 8,9 C 7,8 C 94 % 1006,5 hPa 0,0 l/m 0 min 0 min 45 W/m 22,5 km/h (4 Bft) 100,00 %
24.12.2019 13:14 9,7 C 8,9 C 7,8 C 94 % 1006,6 hPa 0,0 l/m 0 min 0 min 42 W/m 19,3 km/h (3 Bft) 100,00 %
24.12.2019 13:16 9,8 C 8,9 C 7,8 C 94 % 1006,5 hPa 0,0 l/m 0 min 0 min 41 W/m 22,5 km/h (4 Bft) 97,87 %
24.12.2019 13:18 9,8 C 8,9 C 7,8 C 94 % 1006,5 hPa 0,0 l/m 0 min 0 min 53 W/m 16,1 km/h (3 Bft) 100,00 %
24.12.2019 13:20 9,8 C 8,9 C 7,8 C 93 % 1006,6 hPa 0,0 l/m 0 min 0 min 50 W/m 19,3 km/h (3 Bft) 100,00 %
24.12.2019 13:22 9,8 C 8,9 C 7,8 C 93 % 1006,6 hPa 0,0 l/m 0 min 0 min 53 W/m 16,1 km/h (3 Bft) 100,00 %
24.12.2019 13:24 9,8 C 8,9 C 7,8 C 93 % 1006,6 hPa 0,0 l/m 0 min 0 min 43 W/m 22,5 km/h (4 Bft) 100,00 %
24.12.2019 13:26 9,8 C 9,4 C 7,8 C 93 % 1006,7 hPa 0,0 l/m 0 min 0 min 52 W/m 12,9 km/h (3 Bft) 100,00 %
24.12.2019 13:28 9,8 C 9,4 C 7,8 C 92 % 1006,8 hPa 0,0 l/m 0 min 0 min 63 W/m 22,5 km/h (4 Bft) 100,00 %
24.12.2019 13:30 9,9 C 9,4 C 8,3 C 92 % 1006,8 hPa 0,0 l/m 0 min 0 min 64 W/m 22,5 km/h (4 Bft) 97,87 %
24.12.2019 13:32 9,9 C 10,0 C 8,3 C 92 % 1006,7 hPa 0,0 l/m 0 min 0 min 90 W/m 19,3 km/h (3 Bft) 100,00 %
24.12.2019 13:34 9,9 C 10,0 C 8,3 C 92 % 1006,9 hPa 0,0 l/m 0 min 0 min 89 W/m 35,4 km/h (5 Bft) 100,00 %
24.12.2019 13:36 9,9 C 10,0 C 8,3 C 91 % 1006,7 hPa 0,0 l/m 0 min 0 min 75 W/m 35,4 km/h (5 Bft) 100,00 %
24.12.2019 13:38 10,0 C 10,0 C 8,3 C 91 % 1006,8 hPa 0,0 l/m 0 min 0 min 88 W/m 25,7 km/h (4 Bft) 100,00 %
24.12.2019 13:40 10,0 C 10,0 C 8,3 C 91 % 1006,7 hPa 0,0 l/m 0 min 0 min 119 W/m 29,0 km/h (5 Bft) 97,87 %
24.12.2019 13:42 10,1 C 10,0 C 8,3 C 90 % 1006,8 hPa 0,0 l/m 0 min 0 min 108 W/m 25,7 km/h (4 Bft) 97,87 %
24.12.2019 13:44 10,1 C 10,0 C 8,3 C 90 % 1006,8 hPa 0,0 l/m 0 min 0 min 93 W/m 16,1 km/h (3 Bft) 95,74 %
24.12.2019 13:46 10,1 C 10,0 C 8,3 C 90 % 1006,8 hPa 0,0 l/m 0 min 0 min 84 W/m 19,3 km/h (3 Bft) 95,74 %
24.12.2019 13:48 10,1 C 10,0 C 8,3 C 90 % 1006,8 hPa 0,0 l/m 0 min 0 min 86 W/m 29,0 km/h (5 Bft) 95,65 %
24.12.2019 13:50 10,2 C 10,0 C 8,3 C 89 % 1006,9 hPa 0,0 l/m 0 min 0 min 89 W/m 29,0 km/h (5 Bft) 95,74 %
24.12.2019 13:52 10,2 C 10,0 C 8,3 C 89 % 1006,8 hPa 0,0 l/m 0 min 0 min 99 W/m 22,5 km/h (4 Bft) 95,74 %
24.12.2019 13:54 10,2 C 10,0 C 8,3 C 89 % 1006,9 hPa 0,0 l/m 0 min 0 min 111 W/m 19,3 km/h (3 Bft) 95,74 %
24.12.2019 13:56 10,2 C 10,0 C 8,3 C 89 % 1007,0 hPa 0,0 l/m 0 min 0 min 104 W/m 22,5 km/h (4 Bft) 93,62 %
24.12.2019 13:58 10,2 C 10,0 C 8,3 C 89 % 1007,0 hPa 0,0 l/m 0 min 0 min 78 W/m 29,0 km/h (5 Bft) 97,87 %
24.12.2019 14:00 10,3 C 10,0 C 8,3 C 88 % 1006,9 hPa 0,0 l/m 0 min 0 min 64 W/m 22,5 km/h (4 Bft) 93,48 %
24.12.2019 14:02 10,3 C 10,0 C 8,3 C 88 % 1007,0 hPa 0,0 l/m 0 min 0 min 71 W/m 16,1 km/h (3 Bft) 95,74 %
24.12.2019 14:04 10,3 C 10,0 C 8,3 C 88 % 1007,0 hPa 0,0 l/m 0 min 0 min 84 W/m 25,7 km/h (4 Bft) 93,62 %
24.12.2019 14:06 10,3 C 10,0 C 8,3 C 88 % 1007,1 hPa 0,0 l/m 0 min 0 min 79 W/m 12,9 km/h (3 Bft) 53,33 %
24.12.2019 14:08 10,3 C 10,0 C 8,3 C 88 % 1007,2 hPa 0,0 l/m 0 min 0 min 70 W/m 35,4 km/h (5 Bft) 89,36 %
24.12.2019 14:10 10,3 C 10,0 C 8,3 C 87 % 1007,1 hPa 0,0 l/m 0 min 0 min 64 W/m 22,5 km/h (4 Bft) 93,62 %
24.12.2019 14:12 10,3 C 10,0 C 8,3 C 87 % 1007,2 hPa 0,0 l/m 0 min 0 min 53 W/m 16,1 km/h (3 Bft) 91,30 %
24.12.2019 14:14 10,3 C 10,0 C 8,3 C 87 % 1007,2 hPa 0,0 l/m 0 min 0 min 44 W/m 25,7 km/h (4 Bft) 91,49 %
24.12.2019 14:16 10,3 C 10,0 C 8,3 C 87 % 1007,2 hPa 0,0 l/m 0 min 0 min 53 W/m 22,5 km/h (4 Bft) 93,62 %
24.12.2019 14:18 10,3 C 10,0 C 8,3 C 87 % 1007,2 hPa 0,0 l/m 0 min 0 min 48 W/m 29,0 km/h (5 Bft) 93,62 %
24.12.2019 14:20 10,3 C 10,0 C 8,3 C 87 % 1007,3 hPa 0,0 l/m 0 min 0 min 36 W/m 19,3 km/h (3 Bft) 95,74 %
24.12.2019 14:22 10,3 C 10,0 C 8,3 C 87 % 1007,3 hPa 0,0 l/m 0 min 0 min 37 W/m 12,9 km/h (3 Bft) 95,74 %
24.12.2019 14:24 10,3 C 10,0 C 8,3 C 87 % 1007,3 hPa 0,0 l/m 0 min 0 min 41 W/m 16,1 km/h (3 Bft) 93,48 %
24.12.2019 14:26 10,3 C 10,0 C 8,3 C 87 % 1007,5 hPa 0,0 l/m 0 min 0 min 45 W/m 12,9 km/h (3 Bft) 91,49 %
24.12.2019 14:28 10,3 C 10,0 C 8,3 C 87 % 1007,5 hPa 0,0 l/m 0 min 0 min 43 W/m 22,5 km/h (4 Bft) 91,49 %
24.12.2019 14:30 10,3 C 10,0 C 8,3 C 87 % 1007,4 hPa 0,0 l/m 0 min 0 min 56 W/m 19,3 km/h (3 Bft) 89,36 %
24.12.2019 14:32 10,3 C 10,0 C 8,3 C 87 % 1007,4 hPa 0,0 l/m 0 min 0 min 75 W/m 9,7 km/h (2 Bft) 93,62 %
24.12.2019 14:34 10,3 C 10,0 C 8,3 C 87 % 1007,5 hPa 0,0 l/m 0 min 0 min 84 W/m 19,3 km/h (3 Bft) 95,74 %
24.12.2019 14:36 10,3 C 10,0 C 8,3 C 87 % 1007,5 hPa 0,0 l/m 0 min 0 min 74 W/m 12,9 km/h (3 Bft) 95,65 %
24.12.2019 14:38 10,3 C 10,0 C 8,3 C 87 % 1007,5 hPa 0,0 l/m 0 min 0 min 63 W/m 9,7 km/h (2 Bft) 95,74 %
24.12.2019 14:40 10,3 C 10,0 C 8,3 C 87 % 1007,5 hPa 0,0 l/m 0 min 0 min 83 W/m 9,7 km/h (2 Bft) 93,62 %
24.12.2019 14:42 10,3 C 10,6 C 8,3 C 87 % 1007,5 hPa 0,0 l/m 2 min 0 min 108 W/m 22,5 km/h (4 Bft) 95,74 %
24.12.2019 14:44 10,3 C 10,6 C 8,3 C 87 % 1007,5 hPa 0,0 l/m 2 min 0 min 101 W/m 19,3 km/h (3 Bft) 93,62 %
24.12.2019 14:46 10,3 C 10,6 C 8,3 C 87 % 1007,5 hPa 0,0 l/m 0 min 0 min 95 W/m 22,5 km/h (4 Bft) 97,87 %
24.12.2019 14:48 10,4 C 10,6 C 8,9 C 86 % 1007,6 hPa 0,0 l/m 0 min 0 min 78 W/m 16,1 km/h (3 Bft) 93,48 %
24.12.2019 14:50 10,4 C 10,6 C 8,9 C 86 % 1007,5 hPa 0,0 l/m 0 min 0 min 64 W/m 19,3 km/h (3 Bft) 95,74 %
24.12.2019 14:52 10,4 C 10,0 C 8,9 C 85 % 1007,5 hPa 0,0 l/m 0 min 0 min 37 W/m 16,1 km/h (3 Bft) 97,87 %
24.12.2019 14:54 10,4 C 10,0 C 8,9 C 85 % 1007,5 hPa 0,0 l/m 0 min 0 min 39 W/m 19,3 km/h (3 Bft) 97,87 %
24.12.2019 14:56 10,4 C 10,0 C 8,9 C 85 % 1007,5 hPa 0,0 l/m 0 min 0 min 37 W/m 25,7 km/h (4 Bft) 97,87 %
24.12.2019 14:58 10,4 C 10,0 C 8,9 C 85 % 1007,5 hPa 0,0 l/m 0 min 0 min 37 W/m 22,5 km/h (4 Bft) 97,83 %
24.12.2019 15:00 10,4 C 10,0 C 8,9 C 85 % 1007,6 hPa 0,0 l/m 0 min 0 min 45 W/m 19,3 km/h (3 Bft) 100,00 %
24.12.2019 15:02 10,4 C 10,0 C 8,9 C 85 % 1007,5 hPa 0,0 l/m 0 min 0 min 63 W/m 16,1 km/h (3 Bft) 100,00 %
24.12.2019 15:04 10,4 C 10,0 C 8,9 C 85 % 1007,6 hPa 0,0 l/m 0 min 0 min 41 W/m 19,3 km/h (3 Bft) 100,00 %
24.12.2019 15:06 10,4 C 10,0 C 8,9 C 85 % 1007,6 hPa 0,0 l/m 0 min 0 min 24 W/m 19,3 km/h (3 Bft) 100,00 %
24.12.2019 15:08 10,4 C 10,0 C 8,9 C 85 % 1007,6 hPa 0,0 l/m 0 min 0 min 23 W/m 12,9 km/h (3 Bft) 97,87 %
24.12.2019 15:10 10,4 C 9,4 C 8,9 C 85 % 1007,7 hPa 0,0 l/m 0 min 0 min 16 W/m 22,5 km/h (4 Bft) 100,00 %
24.12.2019 15:12 10,4 C 10,0 C 8,9 C 85 % 1007,7 hPa 0,0 l/m 0 min 0 min 17 W/m 19,3 km/h (3 Bft) 97,87 %
24.12.2019 15:14 10,3 C 9,4 C 8,9 C 85 % 1007,8 hPa 0,0 l/m 0 min 0 min 18 W/m 25,7 km/h (4 Bft) 100,00 %
24.12.2019 15:16 10,3 C 9,4 C 8,9 C 85 % 1007,8 hPa 0,0 l/m 0 min 0 min 19 W/m 25,7 km/h (4 Bft) 100,00 %
24.12.2019 15:18 10,3 C 8,9 C 8,3 C 85 % 1007,7 hPa 0,0 l/m 0 min 2 min 19 W/m 25,7 km/h (4 Bft) 100,00 %
24.12.2019 15:20 10,3 C 8,3 C 7,8 C 86 % 1007,8 hPa 0,0 l/m 0 min 2 min 25 W/m 12,9 km/h (3 Bft) 93,62 %
24.12.2019 15:22 10,2 C 8,3 C 7,8 C 86 % 1007,9 hPa 0,0 l/m 0 min 2 min 19 W/m 16,1 km/h (3 Bft) 97,83 %
24.12.2019 15:24 10,2 C 8,3 C 7,2 C 87 % 1007,8 hPa 0,0 l/m 0 min 2 min 15 W/m 19,3 km/h (3 Bft) 97,87 %
24.12.2019 15:26 10,1 C 8,3 C 7,2 C 87 % 1007,8 hPa 0,0 l/m 0 min 2 min 27 W/m 12,9 km/h (3 Bft) 100,00 %
24.12.2019 15:28 10,1 C 8,3 C 7,2 C 88 % 1007,8 hPa 0,0 l/m 0 min 2 min 39 W/m 22,5 km/h (4 Bft) 100,00 %
24.12.2019 15:30 10,1 C 8,3 C 7,2 C 88 % 1007,8 hPa 0,0 l/m 0 min 2 min 31 W/m 16,1 km/h (3 Bft) 100,00 %
24.12.2019 15:32 9,9 C 8,3 C 7,8 C 88 % 1007,8 hPa 0,0 l/m 0 min 2 min 27 W/m 19,3 km/h (3 Bft) 100,00 %
24.12.2019 15:34 9,9 C 8,3 C 7,8 C 89 % 1007,7 hPa 0,0 l/m 0 min 0 min 36 W/m 12,9 km/h (3 Bft) 100,00 %
24.12.2019 15:36 9,9 C 8,3 C 7,8 C 89 % 1007,8 hPa 0,0 l/m 0 min 2 min 26 W/m 22,5 km/h (4 Bft) 100,00 %
24.12.2019 15:38 9,8 C 8,3 C 7,8 C 89 % 1007,7 hPa 0,0 l/m 0 min 2 min 17 W/m 9,7 km/h (2 Bft) 100,00 %
24.12.2019 15:40 9,8 C 8,3 C 7,8 C 89 % 1007,8 hPa 0,0 l/m 0 min 2 min 11 W/m 12,9 km/h (3 Bft) 100,00 %
24.12.2019 15:42 9,8 C 8,3 C 7,8 C 90 % 1007,7 hPa 0,0 l/m 0 min 2 min 10 W/m 6,4 km/h (2 Bft) 100,00 %
24.12.2019 15:44 9,7 C 8,3 C 7,8 C 90 % 1007,8 hPa 0,0 l/m 0 min 0 min 8 W/m 16,1 km/h (3 Bft) 100,00 %
24.12.2019 15:46 9,7 C 8,3 C 7,8 C 90 % 1007,8 hPa 0,0 l/m 0 min 0 min 10 W/m 12,9 km/h (3 Bft) 97,87 %
24.12.2019 15:48 9,7 C 8,3 C 7,8 C 90 % 1007,8 hPa 0,0 l/m 0 min 2 min 12 W/m 16,1 km/h (3 Bft) 100,00 %
24.12.2019 15:50 9,6 C 8,3 C 7,8 C 90 % 1007,9 hPa 0,0 l/m 0 min 2 min 14 W/m 19,3 km/h (3 Bft) 100,00 %
24.12.2019 15:52 9,6 C 7,8 C 7,2 C 91 % 1007,7 hPa 0,0 l/m 0 min 2 min 15 W/m 22,5 km/h (4 Bft) 100,00 %
24.12.2019 15:54 9,6 C 7,8 C 7,2 C 91 % 1007,7 hPa 0,0 l/m 0 min 2 min 26 W/m 22,5 km/h (4 Bft) 100,00 %
24.12.2019 15:56 9,6 C 7,8 C 7,2 C 91 % 1007,6 hPa 0,0 l/m 2 min 2 min 55 W/m 22,5 km/h (4 Bft) 100,00 %
24.12.2019 15:58 9,6 C 8,3 C 7,2 C 91 % 1007,6 hPa 0,0 l/m 2 min 2 min 46 W/m 22,5 km/h (4 Bft) 97,87 %
24.12.2019 16:00 9,6 C 7,8 C 7,2 C 91 % 1007,7 hPa 0,0 l/m 2 min 0 min 29 W/m 12,9 km/h (3 Bft) 100,00 %
24.12.2019 16:02 9,5 C 8,3 C 7,2 C 91 % 1007,6 hPa 0,0 l/m 0 min 0 min 21 W/m 19,3 km/h (3 Bft) 100,00 %
24.12.2019 16:04 9,5 C 8,3 C 7,2 C 91 % 1007,7 hPa 0,0 l/m 0 min 0 min 21 W/m 12,9 km/h (3 Bft) 100,00 %
24.12.2019 16:06 9,5 C 8,3 C 7,2 C 92 % 1007,7 hPa 0,0 l/m 0 min 0 min 17 W/m 12,9 km/h (3 Bft) 100,00 %
24.12.2019 16:08 9,4 C 8,3 C 7,2 C 92 % 1007,8 hPa 0,0 l/m 0 min 0 min 8 W/m 9,7 km/h (2 Bft) 100,00 %
24.12.2019 16:10 9,4 C 7,8 C 7,2 C 92 % 1007,9 hPa 0,0 l/m 0 min 2 min 2 W/m 9,7 km/h (2 Bft) 100,00 %
24.12.2019 16:12 9,4 C 7,8 C 7,2 C 92 % 1008,0 hPa 0,2 l/m 0 min 2 min 0 W/m 12,9 km/h (3 Bft) 100,00 %
24.12.2019 16:14 9,4 C 7,2 C 7,2 C 92 % 1007,8 hPa 0,2 l/m 0 min 2 min 5 W/m 12,9 km/h (3 Bft) 100,00 %
24.12.2019 16:16 9,4 C 7,2 C 7,2 C 92 % 1007,7 hPa 0,0 l/m 0 min 2 min 4 W/m 6,4 km/h (2 Bft) 97,87 %
24.12.2019 16:18 9,4 C 7,2 C 7,2 C 92 % 1007,7 hPa 0,0 l/m 0 min 2 min 0 W/m 9,7 km/h (2 Bft) 100,00 %
24.12.2019 16:20 9,4 C 7,2 C 7,2 C 92 % 1007,7 hPa 0,0 l/m 0 min 2 min 0 W/m 6,4 km/h (2 Bft) 100,00 %
24.12.2019 16:22 9,4 C 7,2 C 7,2 C 92 % 1007,8 hPa 0,0 l/m 0 min 2 min 0 W/m 3,2 km/h (1 Bft) 100,00 %
24.12.2019 16:24 9,3 C 7,2 C 7,2 C 92 % 1007,8 hPa 0,0 l/m 0 min 0 min 0 W/m 6,4 km/h (2 Bft) 100,00 %
24.12.2019 16:26 9,3 C 7,2 C 7,2 C 93 % 1007,9 hPa 0,0 l/m 0 min 0 min 0 W/m 0,0 km/h (0 Bft) 97,87 %
24.12.2019 16:28 9,3 C 7,2 C 7,2 C 93 % 1007,9 hPa 0,0 l/m 0 min 0 min 0 W/m 0,0 km/h (0 Bft) 100,00 %
24.12.2019 16:30 9,3 C 7,2 C 7,2 C 93 % 1007,9 hPa 0,0 l/m 0 min 0 min 0 W/m 3,2 km/h (1 Bft) 100,00 %
24.12.2019 16:32 9,3 C 7,2 C 7,2 C 93 % 1007,9 hPa 0,0 l/m 0 min 0 min 0 W/m 0,0 km/h (0 Bft) 97,83 %
24.12.2019 16:34 9,3 C 7,2 C 7,2 C 93 % 1007,9 hPa 0,0 l/m 0 min 0 min 0 W/m 0,0 km/h (0 Bft) 95,74 %
24.12.2019 16:36 9,2 C 7,2 C 7,2 C 93 % 1007,9 hPa 0,0 l/m 0 min 0 min 0 W/m 0,0 km/h (0 Bft) 97,87 %
24.12.2019 16:38 9,2 C 7,2 C 6,7 C 93 % 1008,1 hPa 0,0 l/m 0 min 0 min 0 W/m 0,0 km/h (0 Bft) 95,74 %
24.12.2019 16:40 9,2 C 7,2 C 6,7 C 93 % 1008,1 hPa 0,0 l/m 0 min 0 min 0 W/m 0,0 km/h (0 Bft) 95,74 %
24.12.2019 16:42 9,2 C 7,8 C 7,2 C 93 % 1008,1 hPa 0,0 l/m 0 min 0 min 0 W/m 6,4 km/h (2 Bft) 93,48 %
24.12.2019 16:44 9,2 C 7,8 C 7,2 C 93 % 1008,1 hPa 0,0 l/m 0 min 0 min 0 W/m 9,7 km/h (2 Bft) 95,74 %
24.12.2019 16:46 9,1 C 7,8 C 7,2 C 93 % 1008,2 hPa 0,0 l/m 0 min 2 min 0 W/m 16,1 km/h (3 Bft) 95,74 %
24.12.2019 16:48 9,1 C 7,2 C 7,2 C 93 % 1008,3 hPa 0,2 l/m 0 min 2 min 0 W/m 22,5 km/h (4 Bft) 97,87 %
24.12.2019 16:50 9,1 C 7,2 C 7,2 C 94 % 1008,1 hPa 0,0 l/m 0 min 2 min 0 W/m 19,3 km/h (3 Bft) 91,49 %
24.12.2019 16:52 9,1 C 7,2 C 7,2 C 94 % 1008,2 hPa 0,0 l/m 0 min 2 min 0 W/m 19,3 km/h (3 Bft) 95,74 %
24.12.2019 16:54 9,1 C 7,2 C 6,7 C 94 % 1008,2 hPa 0,0 l/m 0 min 2 min 0 W/m 32,2 km/h (5 Bft) 93,48 %
24.12.2019 16:56 9,1 C 7,2 C 6,7 C 94 % 1008,1 hPa 0,2 l/m 0 min 2 min 0 W/m 35,4 km/h (5 Bft) 93,62 %
24.12.2019 16:58 9,0 C 7,2 C 6,7 C 93 % 1008,2 hPa 0,0 l/m 0 min 2 min 0 W/m 25,7 km/h (4 Bft) 91,49 %
24.12.2019 17:00 8,9 C 6,7 C 6,7 C 93 % 1008,3 hPa 0,6 l/m 0 min 2 min 0 W/m 51,5 km/h (7 Bft) 93,62 %
24.12.2019 17:02 8,8 C 6,7 C 6,7 C 93 % 1008,1 hPa 0,4 l/m 0 min 2 min 0 W/m 38,6 km/h (5 Bft) 93,62 %
24.12.2019 17:04 8,7 C 6,7 C 6,1 C 93 % 1008,1 hPa 0,0 l/m 0 min 2 min 0 W/m 22,5 km/h (4 Bft) 93,62 %
24.12.2019 17:06 8,7 C 6,7 C 6,1 C 93 % 1008,0 hPa 0,0 l/m 0 min 2 min 0 W/m 29,0 km/h (5 Bft) 93,48 %
24.12.2019 17:08 8,6 C 6,7 C 6,1 C 93 % 1008,1 hPa 0,0 l/m 0 min 2 min 0 W/m 19,3 km/h (3 Bft) 91,49 %
24.12.2019 17:10 8,6 C 6,7 C 6,7 C 93 % 1008,1 hPa 0,0 l/m 0 min 0 min 0 W/m 16,1 km/h (3 Bft) 93,62 %
24.12.2019 17:12 8,5 C 6,7 C 6,7 C 93 % 1008,2 hPa 0,0 l/m 0 min 0 min 0 W/m 16,1 km/h (3 Bft) 91,49 %
24.12.2019 17:14 8,5 C 6,7 C 6,7 C 93 % 1008,3 hPa 0,0 l/m 0 min 0 min 0 W/m 35,4 km/h (5 Bft) 93,62 %
24.12.2019 17:16 8,5 C 7,2 C 6,7 C 93 % 1008,3 hPa 0,0 l/m 0 min 0 min 0 W/m 19,3 km/h (3 Bft) 93,62 %
24.12.2019 17:18 8,6 C 7,2 C 6,7 C 93 % 1008,3 hPa 0,0 l/m 0 min 0 min 0 W/m 22,5 km/h (4 Bft) 93,48 %
24.12.2019 17:20 8,6 C 7,2 C 6,7 C 93 % 1008,4 hPa 0,0 l/m 0 min 0 min 0 W/m 19,3 km/h (3 Bft) 93,62 %
24.12.2019 17:22 8,6 C 7,2 C 6,7 C 94 % 1008,4 hPa 0,0 l/m 0 min 0 min 0 W/m 19,3 km/h (3 Bft) 91,49 %
24.12.2019 17:24 8,6 C 7,2 C 6,7 C 94 % 1008,4 hPa 0,0 l/m 0 min 0 min 0 W/m 16,1 km/h (3 Bft) 93,62 %
24.12.2019 17:26 8,6 C 7,2 C 6,7 C 94 % 1008,5 hPa 0,0 l/m 0 min 0 min 0 W/m 12,9 km/h (3 Bft) 93,62 %
24.12.2019 17:28 8,6 C 7,2 C 6,7 C 94 % 1008,5 hPa 0,0 l/m 0 min 0 min 0 W/m 16,1 km/h (3 Bft) 95,74 %
24.12.2019 17:30 8,6 C 7,2 C 6,7 C 94 % 1008,6 hPa 0,0 l/m 0 min 0 min 0 W/m 12,9 km/h (3 Bft) 95,92 %
24.12.2019 17:32 8,6 C 6,7 C 6,7 C 94 % 1008,5 hPa 0,0 l/m 0 min 0 min 0 W/m 19,3 km/h (3 Bft) 93,62 %
24.12.2019 17:34 8,5 C 6,7 C 6,7 C 94 % 1008,6 hPa 0,0 l/m 0 min 0 min 0 W/m 12,9 km/h (3 Bft) 95,74 %
24.12.2019 17:36 8,5 C 6,7 C 6,7 C 94 % 1008,5 hPa 0,0 l/m 0 min 0 min 0 W/m 22,5 km/h (4 Bft) 93,62 %
24.12.2019 17:38 8,4 C 6,7 C 6,7 C 94 % 1008,6 hPa 0,0 l/m 0 min 0 min 0 W/m 12,9 km/h (3 Bft) 97,87 %
24.12.2019 17:40 8,4 C 6,7 C 6,7 C 94 % 1008,6 hPa 0,0 l/m 0 min 0 min 0 W/m 16,1 km/h (3 Bft) 97,87 %
24.12.2019 17:42 8,4 C 6,7 C 6,7 C 94 % 1008,6 hPa 0,0 l/m 0 min 0 min 0 W/m 12,9 km/h (3 Bft) 97,87 %
24.12.2019 17:44 8,4 C 6,7 C 6,7 C 94 % 1008,7 hPa 0,0 l/m 0 min 2 min 0 W/m 29,0 km/h (5 Bft) 100,00 %
24.12.2019 17:46 8,4 C 6,7 C 6,7 C 94 % 1008,7 hPa 0,2 l/m 0 min 2 min 0 W/m 16,1 km/h (3 Bft) 95,74 %
24.12.2019 17:48 8,4 C 6,7 C 6,7 C 94 % 1008,7 hPa 0,0 l/m 0 min 2 min 0 W/m 19,3 km/h (3 Bft) 97,87 %
24.12.2019 17:50 8,3 C 6,7 C 6,1 C 94 % 1008,8 hPa 0,0 l/m 0 min 2 min 0 W/m 16,1 km/h (3 Bft) 97,87 %
24.12.2019 17:52 8,3 C 6,7 C 6,1 C 94 % 1008,7 hPa 0,0 l/m 0 min 2 min 0 W/m 16,1 km/h (3 Bft) 97,83 %
24.12.2019 17:54 8,3 C 6,7 C 6,1 C 94 % 1008,8 hPa 0,2 l/m 0 min 2 min 0 W/m 12,9 km/h (3 Bft) 100,00 %
24.12.2019 17:56 8,3 C 6,7 C 6,1 C 95 % 1008,7 hPa 0,0 l/m 0 min 2 min 0 W/m 9,7 km/h (2 Bft) 100,00 %
24.12.2019 17:58 8,3 C 6,7 C 6,7 C 94 % 1008,8 hPa 0,2 l/m 0 min 2 min 0 W/m 16,1 km/h (3 Bft) 100,00 %
24.12.2019 18:00 8,3 C 6,7 C 6,7 C 95 % 1008,9 hPa 0,0 l/m 0 min 2 min 0 W/m 16,1 km/h (3 Bft) 97,87 %
24.12.2019 18:02 8,3 C 6,7 C 6,7 C 95 % 1009,0 hPa 0,0 l/m 0 min 2 min 0 W/m 12,9 km/h (3 Bft) 100,00 %
24.12.2019 18:04 8,3 C 6,7 C 6,7 C 95 % 1008,9 hPa 0,0 l/m 0 min 2 min 0 W/m 16,1 km/h (3 Bft) 100,00 %
24.12.2019 18:07 8,3 C 7,2 C 6,7 C 95 % 1008,9 hPa 0,0 l/m 0 min 0 min 0 W/m 22,5 km/h (4 Bft) 100,00 %
24.12.2019 18:08 8,3 C 7,2 C 6,7 C 95 % 1008,9 hPa 0,0 l/m 0 min 0 min 0 W/m 22,5 km/h (4 Bft) 100,00 %
24.12.2019 18:10 8,3 C 7,2 C 6,7 C 95 % 1009,0 hPa 0,0 l/m 0 min 0 min 0 W/m 22,5 km/h (4 Bft) 100,00 %
24.12.2019 18:12 8,4 C 7,2 C 6,7 C 95 % 1009,1 hPa 0,0 l/m 0 min 0 min 0 W/m 22,5 km/h (4 Bft) 100,00 %
24.12.2019 18:14 8,3 C 7,2 C 6,7 C 95 % 1009,0 hPa 0,0 l/m 0 min 0 min 0 W/m 22,5 km/h (4 Bft) 100,00 %
24.12.2019 18:16 8,3 C 7,2 C 6,7 C 95 % 1009,1 hPa 0,0 l/m 0 min 0 min 0 W/m 22,5 km/h (4 Bft) 98,93 %
24.12.2019 18:18 8,3 C 7,2 C 6,7 C 95 % 1009,0 hPa 0,0 l/m 0 min 0 min 0 W/m 6,4 km/h (2 Bft) 100,00 %
24.12.2019 18:20 8,3 C 7,2 C 6,7 C 96 % 1009,0 hPa 0,0 l/m 0 min 0 min 0 W/m 6,4 km/h (2 Bft) 100,00 %
24.12.2019 18:22 8,3 C 7,2 C 6,7 C 96 % 1009,0 hPa 0,0 l/m 0 min 0 min 0 W/m 19,3 km/h (3 Bft) 100,00 %
24.12.2019 18:24 8,3 C 7,2 C 6,7 C 96 % 1009,1 hPa 0,0 l/m 0 min 0 min 0 W/m 12,9 km/h (3 Bft) 100,00 %
24.12.2019 18:26 8,3 C 7,2 C 6,7 C 96 % 1009,0 hPa 0,0 l/m 0 min 0 min 0 W/m 12,9 km/h (3 Bft) 97,83 %
24.12.2019 18:28 8,3 C 7,2 C 6,7 C 96 % 1009,0 hPa 0,0 l/m 0 min 0 min 0 W/m 16,1 km/h (3 Bft) 100,00 %
24.12.2019 18:30 8,4 C 7,2 C 6,7 C 96 % 1009,0 hPa 0,0 l/m 0 min 0 min 0 W/m 16,1 km/h (3 Bft) 100,00 %
24.12.2019 18:32 8,4 C 7,2 C 6,7 C 96 % 1009,1 hPa 0,0 l/m 0 min 0 min 0 W/m 22,5 km/h (4 Bft) 97,87 %
24.12.2019 18:34 8,4 C 7,2 C 6,7 C 96 % 1009,1 hPa 0,0 l/m 0 min 0 min 0 W/m 9,7 km/h (2 Bft) 100,00 %
24.12.2019 18:36 8,4 C 7,2 C 6,7 C 96 % 1009,1 hPa 0,0 l/m 0 min 0 min 0 W/m 19,3 km/h (3 Bft) 97,87 %
24.12.2019 18:38 8,4 C 7,2 C 6,7 C 96 % 1009,0 hPa 0,0 l/m 0 min 0 min 0 W/m 19,3 km/h (3 Bft) 100,00 %
24.12.2019 18:40 8,4 C 7,2 C 6,7 C 96 % 1009,1 hPa 0,0 l/m 0 min 0 min 0 W/m 12,9 km/h (3 Bft) 97,87 %
24.12.2019 18:42 8,4 C 7,2 C 6,7 C 96 % 1009,1 hPa 0,0 l/m 0 min 0 min 0 W/m 12,9 km/h (3 Bft) 100,00 %
24.12.2019 18:44 8,4 C 7,2 C 6,7 C 96 % 1009,1 hPa 0,0 l/m 0 min 0 min 0 W/m 16,1 km/h (3 Bft) 100,00 %
24.12.2019 18:46 8,4 C 7,2 C 6,7 C 96 % 1009,1 hPa 0,0 l/m 0 min 0 min 0 W/m 12,9 km/h (3 Bft) 100,00 %
24.12.2019 18:48 8,4 C 7,2 C 6,7 C 96 % 1009,2 hPa 0,0 l/m 0 min 0 min 0 W/m 12,9 km/h (3 Bft) 100,00 %
24.12.2019 18:50 8,4 C 7,2 C 6,7 C 96 % 1009,1 hPa 0,0 l/m 0 min 0 min 0 W/m 12,9 km/h (3 Bft) 100,00 %
24.12.2019 18:52 8,4 C 7,2 C 6,7 C 96 % 1009,1 hPa 0,0 l/m 0 min 0 min 0 W/m 16,1 km/h (3 Bft) 100,00 %
24.12.2019 18:54 8,4 C 7,2 C 6,7 C 96 % 1009,1 hPa 0,0 l/m 0 min 0 min 0 W/m 6,4 km/h (2 Bft) 100,00 %
24.12.2019 18:56 8,4 C 7,2 C 6,7 C 96 % 1009,2 hPa 0,0 l/m 0 min 0 min 0 W/m 12,9 km/h (3 Bft) 97,87 %
24.12.2019 18:58 8,4 C 7,2 C 6,7 C 96 % 1009,3 hPa 0,0 l/m 0 min 0 min 0 W/m 12,9 km/h (3 Bft) 97,87 %
24.12.2019 19:00 8,4 C 7,2 C 6,7 C 96 % 1009,3 hPa 0,0 l/m 0 min 0 min 0 W/m 12,9 km/h (3 Bft) 100,00 %
24.12.2019 19:02 8,4 C 7,2 C 6,7 C 96 % 1009,3 hPa 0,0 l/m 0 min 0 min 0 W/m 12,9 km/h (3 Bft) 97,83 %
24.12.2019 19:04 8,4 C 7,2 C 6,7 C 96 % 1009,3 hPa 0,0 l/m 0 min 0 min 0 W/m 12,9 km/h (3 Bft) 100,00 %
24.12.2019 19:06 8,4 C 7,2 C 6,7 C 96 % 1009,3 hPa 0,0 l/m 0 min 0 min 0 W/m 12,9 km/h (3 Bft) 100,00 %
24.12.2019 19:08 8,4 C 7,2 C 6,7 C 96 % 1009,3 hPa 0,0 l/m 0 min 0 min 0 W/m 12,9 km/h (3 Bft) 100,00 %
24.12.2019 19:10 8,4 C 7,2 C 6,7 C 96 % 1009,3 hPa 0,0 l/m 0 min 2 min 0 W/m 16,1 km/h (3 Bft) 100,00 %
24.12.2019 19:12 8,5 C 7,2 C 6,7 C 96 % 1009,4 hPa 0,0 l/m 0 min 0 min 0 W/m 16,1 km/h (3 Bft) 100,00 %
24.12.2019 19:14 8,5 C 7,2 C 7,2 C 96 % 1009,4 hPa 0,0 l/m 0 min 0 min 0 W/m 12,9 km/h (3 Bft) 97,87 %
24.12.2019 19:16 8,6 C 7,2 C 7,2 C 96 % 1009,4 hPa 0,0 l/m 0 min 0 min 0 W/m 16,1 km/h (3 Bft) 97,87 %
24.12.2019 19:18 8,6 C 7,8 C 7,2 C 96 % 1009,4 hPa 0,0 l/m 0 min 0 min 0 W/m 12,9 km/h (3 Bft) 95,74 %
24.12.2019 19:20 8,6 C 7,8 C 7,2 C 96 % 1009,5 hPa 0,0 l/m 0 min 0 min 0 W/m 16,1 km/h (3 Bft) 100,00 %
24.12.2019 19:22 8,7 C 7,2 C 7,2 C 96 % 1009,5 hPa 0,0 l/m 0 min 0 min 0 W/m 16,1 km/h (3 Bft) 95,45 %
24.12.2019 19:24 8,7 C 7,2 C 7,2 C 96 % 1009,5 hPa 0,0 l/m 0 min 0 min 0 W/m 12,9 km/h (3 Bft) 97,83 %
24.12.2019 19:26 8,7 C 7,2 C 7,2 C 96 % 1009,6 hPa 0,0 l/m 0 min 0 min 0 W/m 16,1 km/h (3 Bft) 94,74 %
24.12.2019 19:28 8,7 C 7,2 C 7,2 C 96 % 1009,5 hPa 0,0 l/m 0 min 0 min 0 W/m 12,9 km/h (3 Bft) 97,92 %
24.12.2019 19:30 8,7 C 7,8 C 7,2 C 96 % 1009,6 hPa 0,0 l/m 0 min 0 min 0 W/m 16,1 km/h (3 Bft) 91,49 %
24.12.2019 19:32 8,7 C 7,8 C 7,2 C 96 % 1009,6 hPa 0,0 l/m 0 min 0 min 0 W/m 12,9 km/h (3 Bft) 97,87 %
24.12.2019 19:34 8,7 C 7,8 C 7,2 C 96 % 1009,6 hPa 0,0 l/m 0 min 0 min 0 W/m 12,9 km/h (3 Bft) 96,36 %
24.12.2019 19:36 8,7 C 7,8 C 7,2 C 96 % 1009,6 hPa 0,0 l/m 0 min 0 min 0 W/m 12,9 km/h (3 Bft) 95,65 %
24.12.2019 19:38 8,7 C 7,8 C 7,2 C 96 % 1009,6 hPa 0,0 l/m 0 min 0 min 0 W/m 16,1 km/h (3 Bft) 94,74 %
24.12.2019 19:40 8,7 C 7,8 C 7,2 C 96 % 1009,7 hPa 0,0 l/m 0 min 0 min 0 W/m 12,9 km/h (3 Bft) 95,74 %
24.12.2019 19:42 8,7 C 7,8 C 7,2 C 96 % 1009,7 hPa 0,0 l/m 0 min 0 min 0 W/m 9,7 km/h (2 Bft) 93,75 %
24.12.2019 19:44 8,8 C 7,8 C 7,2 C 96 % 1009,7 hPa 0,0 l/m 0 min 2 min 0 W/m 12,9 km/h (3 Bft) 93,62 %
24.12.2019 19:46 8,8 C 7,2 C 7,2 C 96 % 1009,7 hPa 0,2 l/m 0 min 2 min 0 W/m 22,5 km/h (4 Bft) 96,36 %
24.12.2019 19:48 8,8 C 7,2 C 6,7 C 96 % 1009,7 hPa 0,2 l/m 0 min 2 min 0 W/m 12,9 km/h (3 Bft) 94,74 %
24.12.2019 19:50 8,8 C 7,2 C 7,2 C 96 % 1009,8 hPa 0,0 l/m 0 min 2 min 0 W/m 12,9 km/h (3 Bft) 95,74 %
24.12.2019 19:52 8,8 C 7,2 C 6,7 C 96 % 1009,7 hPa 0,2 l/m 0 min 2 min 0 W/m 6,4 km/h (2 Bft) 93,62 %
24.12.2019 19:54 8,8 C 7,2 C 7,2 C 96 % 1009,7 hPa 0,0 l/m 0 min 2 min 0 W/m 9,7 km/h (2 Bft) 94,55 %
24.12.2019 19:56 8,8 C 7,2 C 6,7 C 96 % 1009,7 hPa 0,0 l/m 0 min 2 min 0 W/m 12,9 km/h (3 Bft) 93,62 %
24.12.2019 19:58 8,8 C 7,2 C 6,7 C 96 % 1009,8 hPa 0,0 l/m 0 min 0 min 0 W/m 12,9 km/h (3 Bft) 97,87 %
24.12.2019 20:00 8,8 C 7,2 C 6,7 C 97 % 1009,8 hPa 0,0 l/m 0 min 2 min 0 W/m 9,7 km/h (2 Bft) 95,65 %
24.12.2019 20:02 8,8 C 7,2 C 6,7 C 97 % 1009,7 hPa 0,0 l/m 0 min 0 min 0 W/m 12,9 km/h (3 Bft) 97,87 %
24.12.2019 20:04 8,8 C 7,2 C 6,7 C 97 % 1009,7 hPa 0,0 l/m 0 min 0 min 0 W/m 12,9 km/h (3 Bft) 97,87 %
24.12.2019 20:06 8,8 C 7,2 C 6,7 C 97 % 1009,7 hPa 0,0 l/m 0 min 0 min 0 W/m 16,1 km/h (3 Bft) 95,74 %
24.12.2019 20:08 8,8 C 7,2 C 6,7 C 97 % 1009,8 hPa 0,0 l/m 0 min 2 min 0 W/m 12,9 km/h (3 Bft) 97,87 %
24.12.2019 20:10 8,8 C 7,2 C 6,7 C 96 % 1009,8 hPa 0,0 l/m 0 min 0 min 0 W/m 12,9 km/h (3 Bft) 95,74 %
24.12.2019 20:12 8,8 C 7,2 C 6,7 C 96 % 1009,7 hPa 0,0 l/m 0 min 0 min 0 W/m 12,9 km/h (3 Bft) 97,83 %
24.12.2019 20:14 8,8 C 7,2 C 6,7 C 96 % 1009,8 hPa 0,0 l/m 0 min 0 min 0 W/m 19,3 km/h (3 Bft) 97,87 %
24.12.2019 20:16 8,8 C 7,8 C 7,2 C 96 % 1009,8 hPa 0,0 l/m 0 min 0 min 0 W/m 22,5 km/h (4 Bft) 97,87 %
24.12.2019 20:18 8,8 C 7,8 C 7,2 C 96 % 1009,8 hPa 0,0 l/m 0 min 0 min 0 W/m 25,7 km/h (4 Bft) 97,87 %
24.12.2019 20:20 8,8 C 7,8 C 7,2 C 96 % 1009,8 hPa 0,0 l/m 0 min 0 min 0 W/m 19,3 km/h (3 Bft) 95,74 %
24.12.2019 20:22 8,8 C 7,8 C 7,2 C 96 % 1009,8 hPa 0,0 l/m 0 min 2 min 0 W/m 19,3 km/h (3 Bft) 97,83 %
24.12.2019 20:24 8,8 C 7,8 C 7,2 C 97 % 1009,9 hPa 0,0 l/m 0 min 2 min 0 W/m 22,5 km/h (4 Bft) 97,87 %
24.12.2019 20:26 8,8 C 7,8 C 7,2 C 96 % 1009,9 hPa 0,0 l/m 0 min 2 min 0 W/m 29,0 km/h (5 Bft) 97,87 %
24.12.2019 20:28 8,8 C 7,8 C 7,2 C 96 % 1009,9 hPa 0,0 l/m 0 min 2 min 0 W/m 22,5 km/h (4 Bft) 97,87 %
24.12.2019 20:30 8,8 C 7,8 C 7,2 C 96 % 1009,9 hPa 0,0 l/m 0 min 2 min 0 W/m 29,0 km/h (5 Bft) 97,87 %
24.12.2019 20:32 8,8 C 7,8 C 7,2 C 96 % 1009,9 hPa 0,0 l/m 0 min 2 min 0 W/m 22,5 km/h (4 Bft) 95,74 %
24.12.2019 20:34 8,9 C 7,8 C 7,2 C 96 % 1009,9 hPa 0,0 l/m 0 min 2 min 0 W/m 19,3 km/h (3 Bft) 97,83 %
24.12.2019 20:36 8,9 C 7,8 C 7,2 C 96 % 1009,9 hPa 0,0 l/m 0 min 2 min 0 W/m 22,5 km/h (4 Bft) 97,87 %
24.12.2019 20:38 8,9 C 7,8 C 7,2 C 96 % 1009,9 hPa 0,0 l/m 0 min 2 min 0 W/m 16,1 km/h (3 Bft) 97,87 %
24.12.2019 20:40 8,9 C 7,8 C 7,2 C 96 % 1009,8 hPa 0,0 l/m 0 min 2 min 0 W/m 35,4 km/h (5 Bft) 95,74 %
24.12.2019 20:42 8,9 C 7,8 C 7,2 C 96 % 1009,9 hPa 0,0 l/m 0 min 2 min 0 W/m 22,5 km/h (4 Bft) 97,87 %
24.12.2019 20:44 8,9 C 7,8 C 7,2 C 96 % 1010,0 hPa 0,0 l/m 0 min 2 min 0 W/m 19,3 km/h (3 Bft) 97,87 %
24.12.2019 20:46 8,9 C 7,8 C 7,2 C 96 % 1010,0 hPa 0,0 l/m 0 min 2 min 0 W/m 19,3 km/h (3 Bft) 95,65 %
24.12.2019 20:48 8,9 C 7,8 C 7,2 C 96 % 1010,0 hPa 0,0 l/m 0 min 2 min 0 W/m 19,3 km/h (3 Bft) 97,87 %
24.12.2019 20:50 8,9 C 7,8 C 7,2 C 96 % 1010,0 hPa 0,0 l/m 0 min 2 min 0 W/m 16,1 km/h (3 Bft) 97,87 %
24.12.2019 20:52 8,9 C 7,8 C 7,2 C 96 % 1010,0 hPa 0,0 l/m 0 min 2 min 0 W/m 16,1 km/h (3 Bft) 97,87 %
24.12.2019 20:54 8,9 C 7,8 C 7,2 C 96 % 1010,0 hPa 0,0 l/m 0 min 0 min 0 W/m 22,5 km/h (4 Bft) 97,87 %
24.12.2019 20:56 8,9 C 7,8 C 7,2 C 96 % 1010,1 hPa 0,0 l/m 0 min 0 min 0 W/m 22,5 km/h (4 Bft) 97,87 %
24.12.2019 20:58 8,9 C 7,8 C 7,2 C 96 % 1010,1 hPa 0,0 l/m 0 min 0 min 0 W/m 25,7 km/h (4 Bft) 95,65 %
24.12.2019 21:00 8,9 C 7,8 C 7,2 C 96 % 1010,2 hPa 0,0 l/m 0 min 2 min 0 W/m 25,7 km/h (4 Bft) 97,87 %
24.12.2019 21:02 8,9 C 7,8 C 7,2 C 96 % 1010,2 hPa 0,0 l/m 0 min 2 min 0 W/m 25,7 km/h (4 Bft) 100,00 %
24.12.2019 21:04 8,9 C 7,8 C 7,2 C 96 % 1010,2 hPa 0,0 l/m 0 min 0 min 0 W/m 25,7 km/h (4 Bft) 95,74 %
24.12.2019 21:06 8,9 C 7,8 C 7,2 C 96 % 1010,2 hPa 0,0 l/m 0 min 0 min 0 W/m 16,1 km/h (3 Bft) 95,74 %
24.12.2019 21:08 8,9 C 7,2 C 7,2 C 96 % 1010,3 hPa 0,0 l/m 0 min 0 min 0 W/m 19,3 km/h (3 Bft) 97,83 %
24.12.2019 21:10 8,8 C 7,8 C 7,2 C 96 % 1010,3 hPa 0,0 l/m 0 min 0 min 0 W/m 25,7 km/h (4 Bft) 97,87 %
24.12.2019 21:12 8,9 C 7,8 C 7,2 C 96 % 1010,3 hPa 0,0 l/m 0 min 0 min 0 W/m 19,3 km/h (3 Bft) 97,87 %
24.12.2019 21:14 8,8 C 7,8 C 7,2 C 96 % 1010,3 hPa 0,0 l/m 0 min 0 min 0 W/m 6,4 km/h (2 Bft) 97,87 %
24.12.2019 21:16 8,8 C 7,8 C 7,2 C 96 % 1010,3 hPa 0,0 l/m 0 min 0 min 0 W/m 16,1 km/h (3 Bft) 100,00 %
24.12.2019 21:18 8,9 C 7,8 C 7,2 C 95 % 1010,4 hPa 0,0 l/m 0 min 0 min 0 W/m 9,7 km/h (2 Bft) 100,00 %
24.12.2019 21:20 8,8 C 7,8 C 7,2 C 95 % 1010,3 hPa 0,0 l/m 0 min 2 min 0 W/m 32,2 km/h (5 Bft) 100,00 %
24.12.2019 21:22 8,9 C 7,8 C 7,2 C 95 % 1010,3 hPa 0,0 l/m 0 min 2 min 0 W/m 22,5 km/h (4 Bft) 97,87 %
24.12.2019 21:24 8,9 C 7,8 C 7,2 C 95 % 1010,4 hPa 0,0 l/m 0 min 2 min 0 W/m 16,1 km/h (3 Bft) 97,87 %
24.12.2019 21:26 8,9 C 7,8 C 7,2 C 95 % 1010,4 hPa 0,0 l/m 0 min 2 min 0 W/m 16,1 km/h (3 Bft) 100,00 %
24.12.2019 21:28 8,9 C 7,8 C 7,2 C 95 % 1010,4 hPa 0,0 l/m 0 min 2 min 0 W/m 19,3 km/h (3 Bft) 100,00 %
24.12.2019 21:30 8,9 C 7,2 C 7,2 C 95 % 1010,4 hPa 0,0 l/m 0 min 2 min 0 W/m 16,1 km/h (3 Bft) 100,00 %
24.12.2019 21:32 8,9 C 7,2 C 7,2 C 95 % 1010,4 hPa 0,0 l/m 0 min 2 min 0 W/m 22,5 km/h (4 Bft) 97,83 %
24.12.2019 21:34 8,9 C 7,2 C 7,2 C 95 % 1010,4 hPa 0,0 l/m 0 min 2 min 0 W/m 12,9 km/h (3 Bft) 97,87 %
24.12.2019 21:36 8,9 C 7,2 C 6,7 C 95 % 1010,4 hPa 0,0 l/m 0 min 2 min 0 W/m 6,4 km/h (2 Bft) 97,87 %
24.12.2019 21:38 8,9 C 7,2 C 6,7 C 95 % 1010,4 hPa 0,0 l/m 0 min 2 min 0 W/m 25,7 km/h (4 Bft) 100,00 %
24.12.2019 21:40 8,9 C 7,2 C 6,7 C 95 % 1010,5 hPa 0,0 l/m 0 min 2 min 0 W/m 12,9 km/h (3 Bft) 100,00 %
24.12.2019 21:42 8,9 C 7,2 C 6,7 C 95 % 1010,5 hPa 0,0 l/m 0 min 2 min 0 W/m 16,1 km/h (3 Bft) 100,00 %
24.12.2019 21:44 8,8 C 7,2 C 6,7 C 95 % 1010,5 hPa 0,0 l/m 0 min 2 min 0 W/m 16,1 km/h (3 Bft) 100,00 %
24.12.2019 21:46 8,8 C 7,2 C 6,7 C 95 % 1010,4 hPa 0,0 l/m 0 min 2 min 0 W/m 16,1 km/h (3 Bft) 100,00 %
24.12.2019 21:48 8,8 C 7,2 C 6,7 C 95 % 1010,4 hPa 0,0 l/m 0 min 2 min 0 W/m 19,3 km/h (3 Bft) 97,87 %
24.12.2019 21:50 8,8 C 7,2 C 6,7 C 95 % 1010,4 hPa 0,0 l/m 0 min 2 min 0 W/m 16,1 km/h (3 Bft) 100,00 %
24.12.2019 21:52 8,8 C 7,2 C 6,7 C 95 % 1010,4 hPa 0,0 l/m 0 min 2 min 0 W/m 19,3 km/h (3 Bft) 97,87 %
24.12.2019 21:54 8,8 C 7,2 C 6,7 C 95 % 1010,4 hPa 0,0 l/m 0 min 0 min 0 W/m 16,1 km/h (3 Bft) 97,87 %
24.12.2019 21:56 8,8 C 7,2 C 6,7 C 95 % 1010,4 hPa 0,0 l/m 0 min 2 min 0 W/m 29,0 km/h (5 Bft) 97,83 %
24.12.2019 21:58 8,8 C 7,2 C 6,7 C 95 % 1010,4 hPa 0,0 l/m 0 min 2 min 0 W/m 19,3 km/h (3 Bft) 95,74 %
24.12.2019 22:00 8,8 C 7,2 C 6,7 C 95 % 1010,4 hPa 0,0 l/m 0 min 2 min 0 W/m 19,3 km/h (3 Bft) 97,87 %
24.12.2019 22:02 8,8 C 7,2 C 6,7 C 95 % 1010,5 hPa 0,0 l/m 0 min 2 min 0 W/m 6,4 km/h (2 Bft) 95,74 %
24.12.2019 22:04 8,8 C 7,2 C 6,7 C 95 % 1010,5 hPa 0,0 l/m 0 min 0 min 0 W/m 12,9 km/h (3 Bft) 95,74 %
24.12.2019 22:06 8,8 C 7,2 C 6,7 C 95 % 1010,5 hPa 0,0 l/m 0 min 0 min 0 W/m 19,3 km/h (3 Bft) 95,74 %
24.12.2019 22:08 8,8 C 7,2 C 6,7 C 95 % 1010,5 hPa 0,0 l/m 0 min 2 min 0 W/m 12,9 km/h (3 Bft) 97,83 %
24.12.2019 22:10 8,8 C 7,2 C 6,7 C 95 % 1010,5 hPa 0,0 l/m 0 min 2 min 0 W/m 19,3 km/h (3 Bft) 95,74 %
24.12.2019 22:12 8,8 C 7,2 C 6,7 C 95 % 1010,5 hPa 0,0 l/m 0 min 2 min 0 W/m 22,5 km/h (4 Bft) 95,74 %
24.12.2019 22:14 8,8 C 7,2 C 6,7 C 95 % 1010,6 hPa 0,2 l/m 0 min 0 min 0 W/m 16,1 km/h (3 Bft) 93,62 %
24.12.2019 22:16 8,8 C 7,8 C 6,7 C 95 % 1010,6 hPa 0,0 l/m 0 min 0 min 0 W/m 12,9 km/h (3 Bft) 93,62 %
24.12.2019 22:18 8,8 C 7,8 C 6,7 C 95 % 1010,6 hPa 0,0 l/m 0 min 0 min 0 W/m 12,9 km/h (3 Bft) 95,65 %
24.12.2019 22:20 8,8 C 7,2 C 6,7 C 95 % 1010,6 hPa 0,0 l/m 0 min 0 min 0 W/m 6,4 km/h (2 Bft) 95,74 %
24.12.2019 22:22 8,8 C 7,2 C 6,7 C 95 % 1010,6 hPa 0,0 l/m 0 min 0 min 0 W/m 16,1 km/h (3 Bft) 93,62 %
24.12.2019 22:24 8,8 C 7,8 C 6,7 C 95 % 1010,7 hPa 0,0 l/m 0 min 0 min 0 W/m 22,5 km/h (4 Bft) 95,74 %
24.12.2019 22:26 8,8 C 7,8 C 7,2 C 95 % 1010,6 hPa 0,0 l/m 0 min 0 min 0 W/m 16,1 km/h (3 Bft) 97,87 %
24.12.2019 22:28 8,8 C 7,8 C 6,7 C 95 % 1010,7 hPa 0,0 l/m 0 min 0 min 0 W/m 16,1 km/h (3 Bft) 95,74 %
24.12.2019 22:30 8,8 C 7,8 C 7,2 C 95 % 1010,7 hPa 0,0 l/m 0 min 0 min 0 W/m 22,5 km/h (4 Bft) 95,65 %
24.12.2019 22:32 8,8 C 7,8 C 7,2 C 95 % 1010,6 hPa 0,0 l/m 0 min 0 min 0 W/m 9,7 km/h (2 Bft) 93,62 %
24.12.2019 22:34 8,8 C 7,8 C 7,2 C 95 % 1010,7 hPa 0,0 l/m 0 min 0 min 0 W/m 12,9 km/h (3 Bft) 95,74 %
24.12.2019 22:36 8,8 C 7,8 C 7,2 C 95 % 1010,7 hPa 0,0 l/m 0 min 0 min 0 W/m 6,4 km/h (2 Bft) 95,74 %
24.12.2019 22:38 8,8 C 7,8 C 7,2 C 95 % 1010,7 hPa 0,0 l/m 0 min 0 min 0 W/m 6,4 km/h (2 Bft) 95,74 %
24.12.2019 22:40 8,8 C 7,8 C 7,2 C 95 % 1010,8 hPa 0,0 l/m 0 min 0 min 0 W/m 22,5 km/h (4 Bft) 97,87 %
24.12.2019 22:42 8,8 C 7,8 C 7,2 C 95 % 1010,7 hPa 0,0 l/m 0 min 0 min 0 W/m 9,7 km/h (2 Bft) 95,65 %
24.12.2019 22:44 8,8 C 7,8 C 7,2 C 95 % 1010,8 hPa 0,0 l/m 0 min 0 min 0 W/m 12,9 km/h (3 Bft) 97,87 %
24.12.2019 22:46 8,8 C 7,8 C 7,2 C 95 % 1010,9 hPa 0,0 l/m 0 min 0 min 0 W/m 16,1 km/h (3 Bft) 97,87 %
24.12.2019 22:48 8,8 C 7,8 C 7,2 C 95 % 1010,8 hPa 0,0 l/m 0 min 0 min 0 W/m 16,1 km/h (3 Bft) 97,87 %
24.12.2019 22:50 8,8 C 7,8 C 7,2 C 95 % 1010,8 hPa 0,0 l/m 0 min 0 min 0 W/m 16,1 km/h (3 Bft) 95,74 %
24.12.2019 22:52 8,8 C 7,8 C 7,2 C 95 % 1011,0 hPa 0,0 l/m 0 min 0 min 0 W/m 16,1 km/h (3 Bft) 97,87 %
24.12.2019 22:54 8,8 C 7,8 C 7,2 C 95 % 1011,0 hPa 0,0 l/m 0 min 0 min 0 W/m 22,5 km/h (4 Bft) 97,83 %
24.12.2019 22:56 8,8 C 7,8 C 7,2 C 95 % 1011,0 hPa 0,0 l/m 0 min 0 min 0 W/m 12,9 km/h (3 Bft) 97,87 %
24.12.2019 22:58 8,8 C 7,8 C 7,2 C 95 % 1010,9 hPa 0,0 l/m 0 min 0 min 0 W/m 16,1 km/h (3 Bft) 97,87 %
24.12.2019 23:00 8,8 C 7,8 C 7,2 C 95 % 1011,0 hPa 0,0 l/m 0 min 0 min 0 W/m 12,9 km/h (3 Bft) 97,87 %
24.12.2019 23:02 8,8 C 7,8 C 7,2 C 95 % 1011,0 hPa 0,0 l/m 0 min 0 min 0 W/m 19,3 km/h (3 Bft) 100,00 %
24.12.2019 23:04 8,8 C 7,8 C 7,2 C 95 % 1011,0 hPa 0,0 l/m 0 min 0 min 0 W/m 19,3 km/h (3 Bft) 100,00 %
24.12.2019 23:06 8,8 C 7,8 C 7,2 C 95 % 1011,0 hPa 0,0 l/m 0 min 0 min 0 W/m 25,7 km/h (4 Bft) 100,00 %
24.12.2019 23:08 8,8 C 7,8 C 7,2 C 95 % 1011,1 hPa 0,0 l/m 0 min 0 min 0 W/m 12,9 km/h (3 Bft) 97,87 %
24.12.2019 23:10 8,8 C 7,2 C 7,2 C 94 % 1011,2 hPa 0,0 l/m 0 min 2 min 0 W/m 16,1 km/h (3 Bft) 100,00 %
24.12.2019 23:12 8,8 C 7,2 C 6,7 C 94 % 1011,2 hPa 0,0 l/m 0 min 2 min 0 W/m 12,9 km/h (3 Bft) 100,00 %
24.12.2019 23:14 8,8 C 7,2 C 6,7 C 94 % 1011,2 hPa 0,0 l/m 0 min 2 min 0 W/m 6,4 km/h (2 Bft) 100,00 %
24.12.2019 23:16 8,8 C 7,2 C 6,7 C 94 % 1011,2 hPa 0,0 l/m 0 min 0 min 0 W/m 12,9 km/h (3 Bft) 100,00 %
24.12.2019 23:18 8,8 C 7,2 C 6,7 C 95 % 1011,2 hPa 0,0 l/m 0 min 0 min 0 W/m 16,1 km/h (3 Bft) 100,00 %
24.12.2019 23:20 8,8 C 7,2 C 6,7 C 95 % 1011,3 hPa 0,0 l/m 0 min 2 min 0 W/m 19,3 km/h (3 Bft) 97,87 %
24.12.2019 23:22 8,8 C 7,2 C 6,7 C 95 % 1011,3 hPa 0,0 l/m 0 min 2 min 0 W/m 12,9 km/h (3 Bft) 97,87 %
24.12.2019 23:24 8,8 C 7,2 C 6,7 C 95 % 1011,3 hPa 0,0 l/m 0 min 2 min 0 W/m 12,9 km/h (3 Bft) 100,00 %
24.12.2019 23:26 8,8 C 7,2 C 6,7 C 95 % 1011,3 hPa 0,0 l/m 0 min 2 min 0 W/m 12,9 km/h (3 Bft) 100,00 %
24.12.2019 23:28 8,8 C 7,2 C 6,7 C 95 % 1011,3 hPa 0,0 l/m 0 min 2 min 0 W/m 9,7 km/h (2 Bft) 100,00 %
24.12.2019 23:30 8,8 C 7,2 C 6,7 C 95 % 1011,3 hPa 0,0 l/m 0 min 2 min 0 W/m 9,7 km/h (2 Bft) 100,00 %
24.12.2019 23:32 8,8 C 7,2 C 6,7 C 95 % 1011,4 hPa 0,2 l/m 0 min 2 min 0 W/m 6,4 km/h (2 Bft) 97,87 %
24.12.2019 23:34 8,8 C 7,2 C 6,7 C 95 % 1011,4 hPa 0,0 l/m 0 min 2 min 0 W/m 12,9 km/h (3 Bft) 100,00 %
24.12.2019 23:36 8,8 C 7,2 C 6,7 C 95 % 1011,4 hPa 0,0 l/m 0 min 0 min 0 W/m 12,9 km/h (3 Bft) 100,00 %
24.12.2019 23:38 8,7 C 7,2 C 6,7 C 95 % 1011,4 hPa 0,0 l/m 0 min 0 min 0 W/m 6,4 km/h (2 Bft) 100,00 %
24.12.2019 23:40 8,7 C 7,2 C 6,7 C 95 % 1011,4 hPa 0,0 l/m 0 min 2 min 0 W/m 12,9 km/h (3 Bft) 100,00 %
24.12.2019 23:42 8,7 C 7,2 C 6,7 C 95 % 1011,4 hPa 0,0 l/m 0 min 0 min 0 W/m 12,9 km/h (3 Bft) 100,00 %
24.12.2019 23:44 8,7 C 7,2 C 6,7 C 95 % 1011,5 hPa 0,0 l/m 0 min 2 min 0 W/m 3,2 km/h (1 Bft) 97,87 %
24.12.2019 23:46 8,7 C 7,2 C 6,7 C 95 % 1011,5 hPa 0,0 l/m 0 min 2 min 0 W/m 6,4 km/h (2 Bft) 97,87 %
24.12.2019 23:48 8,7 C 7,2 C 6,7 C 95 % 1011,6 hPa 0,2 l/m 0 min 2 min 0 W/m 6,4 km/h (2 Bft) 97,87 %
24.12.2019 23:50 8,7 C 7,2 C 6,7 C 95 % 1011,6 hPa 0,0 l/m 0 min 2 min 0 W/m 3,2 km/h (1 Bft) 97,87 %
24.12.2019 23:52 8,7 C 7,2 C 6,7 C 95 % 1011,6 hPa 0,2 l/m 0 min 2 min 0 W/m 16,1 km/h (3 Bft) 97,83 %
24.12.2019 23:54 8,7 C 7,2 C 6,7 C 95 % 1011,6 hPa 0,0 l/m 0 min 2 min 0 W/m 12,9 km/h (3 Bft) 97,87 %
24.12.2019 23:56 8,7 C 7,2 C 6,7 C 95 % 1011,6 hPa 0,2 l/m 0 min 2 min 0 W/m 12,9 km/h (3 Bft) 97,87 %
24.12.2019 23:58 8,6 C 7,2 C 6,7 C 95 % 1011,6 hPa 0,2 l/m 0 min 2 min 0 W/m 12,9 km/h (3 Bft) 97,87 %
_ Min-Zeit 07:22 08:08 08:20 14:52 12:16 - - - - 06:00 10:38
Minimum _ 6,0 C 4,4 C 3,9 C 85 % 1006,1 hPa - - - - 0,0 km/h (0 Bft) 44,83 %
_ Max-Zeit 14:48 14:42 14:48 11:18 01:26 17:00 14:42 08:02 12:42 17:00 00:00
Maximum _ 10,4 C 10,6 C 8,9 C 99 % 1015,2 hPa 0,6 l/m 2 min 2 min 147 W/m 51,5 km/h
N-NO (7 Bft)
100,00 %
Durchschnitt _ 7,8 C 6,9 C 6,2 C 94 % 1010,3 hPa #6,4 l/m #10 min. #5:44 h 45 W/m 17,3 km/h (3 Bft) 97,23 %
© 2019 W. Hausmann